     2              OBSERVATION DATA    GPS                 RINEX VERSION / TYPE
teqc 1997Jul24 19970813                                     PGM / RUN BY / DATE
                                                            COMMENT
Original Marker Name: BOUC                                  COMMENT
Campaign Name: southern california 1988                     COMMENT
4-Character Station Name: BOUC                              COMMENT
6-Character Antenna Code: TI4100                            COMMENT
Vertical Measurement Point: PAE                             COMMENT
Vertical Offset to Rinex Ref. Point: 0.0000                 COMMENT
Radial Measurement Point: PAE                               COMMENT
Radial Offset to Rinex Ref. Point: 0.0842                   COMMENT
Antenna Height from Field Measurement: 1.2540 m             COMMENT
Original XYZ: -2415503.0448 -4757455.8619 3485956.5300      COMMENT
New XYZ position is based on association with SCEC monument COMMENT
E1D0C8V9+0011. Position of that monument is believed to be  COMMENT
valid to within 1 m horizontally; vertical accuracy         COMMENT
should be no worse than 3-times this value.                 COMMENT
                                                            COMMENT
Revised Rinex header created by UCSD GPS archive for        COMMENT
GSAC on 12-Apr-1999 (1999:102) 02:27:38 GMT                 COMMENT
For assistance contact dagnew@ucsd.edu or hjohnson@ucsd.edu COMMENT
                                                            COMMENT
BOUCHER 2 1975                                              MARKER NAME
BY NATIONAL GEODETIC SURVEY                                 OBSERVER / AGENCY
UN01 TI 4100 1.5                                            REC # / TYPE / VERS
UN01 TI 4100                                                ANT # / TYPE
 -2415577.0000 -4757396.0000  3485928.0000                  APPROX POSITION XYZ
        1.2512        0.0000        0.0000                  ANTENNA: DELTA H/E/N
     1     1     0                                          WAVELENGTH FACT L1/2
     4    P1    P2    L1    L2                              # / TYPES OF OBSERV
    30                                                      INTERVAL
  1988     3    22     3    11   29.000000                  TIME OF FIRST OBS
  1988     3    22     7    59   29.000000                  TIME OF LAST OBS
     0                                                      # OF SATELLITES
                                                            END OF HEADER
 88  3 22  3 11 29.0800000  0  3G 6G 8G11
  21497991.902    21497993.817      847868.323 9  -1435939.217 9
  20570670.702    20570673.614      936688.168 9  -1313068.083 8
  22882698.496    22882699.382      529894.253 1  -1189613.951 4
 88  3 22  3 11 59.0800000  0  3G 6G 8G11
  21487332.747    21487336.426      791865.423 9  -1479577.814 7
  20562876.859    20562877.990      895718.380 9  -1344992.545 7
  22863175.874    22863286.591      412123.844 1  -1269093.262 1
 88  3 22  3 12 29.0800000  0  3G 6G 8G11
  21476700.323    21476703.391      735986.766 9  -1523119.572 9
  20555204.712    20555207.533      855418.996 9  -1376394.594 7
                  22843931.294                    -1348361.337 3
 88  3 22  3 12 59.0800000  0  2G 6G 8
  21466093.771    21466094.449      680234.144 8  -1566563.148 9
  20547665.317    20547667.866      815791.500 9  -1407273.134 6
 88  3 22  3 13 29.0800000  0  2G 6G 8
  21455506.858    21455510.623      624609.233 9  -1609907.187 9
  20540253.202    20540253.728      776837.126 9  -1437627.111 8
 88  3 22  3 13 59.0800000  0  2G 6G 8
  21444946.780    21444951.096      569113.721 8  -1653150.400 9
  20532968.290    20532969.706      738557.042 9  -1467455.688 7
 88  3 22  3 14 29.0800000  0  2G 6G 8
  21434410.938    21434413.804      513749.546 9  -1696291.283 9
  20525811.742    20525813.092      700952.555 9  -1496757.830 8
 88  3 22  3 14 59.0800000  0  2G 6G 8
  21423900.852    21423904.158      458518.433 9  -1739328.479 9
  20518784.683    20518787.413      664024.776 9  -1525532.669 8
 88  3 22  3 15 29.0800000  0  2G 6G 8
  21413417.604    21413419.614      403422.038 9  -1782260.660 9
  20511887.441    20511887.730      627774.865 9  -1553779.307 7
 88  3 22  3 15 59.0800000  0  2G 6G 8
  21402958.787    21402960.563      348462.298 9  -1825086.390 9
  20505118.167    20505119.736      592204.445 9  -1581496.466 8
 88  3 22  3 16 29.0800000  0  2G 6G 8
  21392524.550    21392527.612      293640.870 9  -1867804.374 9
  20498478.703    20498481.565      557314.315 9  -1608683.562 8
 88  3 22  3 16 59.0800000  0  2G 6G 8
  21382120.635    21382123.333      238959.433 9  -1910413.243 9
  20491969.719    20491971.472      523105.568 9  -1635339.674 8
 88  3 22  3 17 29.0800000  0  2G 6G 8
  21371743.060    21371742.997      184420.116 9  -1952911.356 8
  20485589.130    20485591.115      489579.646 9  -1661463.759 7
 88  3 22  3 17 59.0800000  0  2G 6G 8
  21361390.919    21361392.956      130024.528 9  -1995297.479 8
  20479340.300    20479341.842      456737.287 9  -1687055.165 7
 88  3 22  3 18 29.0800000  0  2G 6G 8
  21351065.778    21351069.182       75774.518 8  -2037570.190 8
  20473219.705    20473222.868      424579.555 8  -1712113.124 8
 88  3 22  3 18 59.0800000  0  2G 6G 8
  21340772.125    21340773.183       21672.025 9  -2079727.933 9
  20467230.584    20467231.513      393107.578 5  -1736636.675 2
 88  3 22  3 19 29.0800000  0  2G 6G 8
  21330506.866    21330507.715      -32281.214 9  -2121769.359 9
  20461371.468    20461374.430      362321.964 9  -1760625.445 8
 88  3 22  3 19 59.0800000  0  2G 6G 8
  21320267.789    21320269.143      -86083.316 9  -2163693.035 8
  20455644.651    20455647.535      332223.530 9  -1784078.712 7
 88  3 22  3 20 29.0800000  0  2G 6G 8
  21310058.259    21310060.113     -139732.469 9  -2205497.548 9
  20450048.786    20450049.488      302813.585 9  -1806995.518 7
 88  3 22  3 20 59.0800000  0  2G 6G 8
  21299878.487    21299879.205     -193226.671 9  -2247181.328 9
  20444583.902    20444585.988      274092.933 9  -1829375.181 8
 88  3 22  3 21 29.0800000  0  2G 6G 8
  21289728.279    21289730.949     -246564.024 9  -2288742.877 9
  20439248.437    20439250.417      246062.414 9  -1851217.123 8
 88  3 22  3 21 59.0800000  0  2G 6G 8
  21279608.689    21279610.853     -299742.808 9  -2330180.827 9
  20434047.606    20434048.382      218722.569 9  -1872520.875 8
 88  3 22  3 22 59.0800000  0  1G 6
                  21446805.205    -4013629.041 9
 88  3 22  3 23 29.0800000  0  2G 6G 8
  21436805.643    21436807.988    -4066320.786 9   5396261.970 9
  20606599.649    20606600.556    -4021114.356 8   5407560.288 8
 88  3 22  3 23 59.0800000  0  2G 6G 8
  21426809.298    21426810.870    -4118846.061 9   5355332.728 9
  20601921.116    20601925.609    -4045684.822 8   5388414.498 9
 88  3 22  3 24 29.0800000  0  2G 6G 8
  21416845.438    21416847.468    -4171203.058 9   5314535.127 8
  20597379.968    20597381.021    -4069561.186 8   5369809.571 8
 88  3 22  3 24 59.0800000  0  1G 8
  20592966.432    20592971.575    -4092743.143 8   5351745.725 8
 88  3 22  3 25 29.0800000  0  2G 6G 8
                  21396993.406    -4909945.499 9
  20588687.074    20588691.757    -4115230.316 8   5334223.282 8
 88  3 22  3 25 59.0800000  0  2G 6G 8
  21387154.704    21387150.753    -4961786.409 9   6483041.777 8
  20584543.728    20584543.782    -4137021.391 8   5317243.277 7
 88  3 22  3 26 29.0800000  0  2G 6G 8
  21377321.271    21377321.589    -5013450.970 9   6442783.712 8
  20580527.193    20580530.521    -4158116.335 8   5300805.655 8
 88  3 22  3 26 59.0800000  0  2G 6G 8
  21367522.324    21367524.051    -5064937.528 9   6402664.359 9
  20576645.034    20576648.881    -4178514.780 8   5284910.807 9
 88  3 22  3 27 29.0800000  0  2G 6G 8
  21357758.956    21357761.972    -5116243.991 9   6362685.317 9
  20572897.893    20572900.100    -4198216.045 8   5269559.188 8
 88  3 22  3 27 59.0800000  0  2G 6G 8
  21348029.234    21348033.484    -5167368.491 8   6322848.066 9
  20569281.785    20569283.751    -4217220.321 8   5254750.711 7
 88  3 22  3 28 29.0800000  0  2G 6G 8
  21338336.586    21338337.904    -5218308.826 8   6283154.279 8
                  20565796.424    -4235526.888 6
 88  3 22  3 28 59.0800000  0  2G 6G 8
  21328678.686    21328681.164    -5269063.062 9   6243605.528 9
  20562448.786    20562446.296    -4253135.479 8   5275841.951 7
 88  3 22  3 29 29.0800000  0  2G 6G 8
  21319057.740    21319057.315    -5319629.358 9   6204203.277 7
  20559228.494    20559230.676    -4270046.067 7   5262664.900 8
 88  3 22  3 29 59.0800000  0  2G 6G 8
  21309471.784    21309469.981    -5370005.459 9   6164949.236 8
  20556141.556    20556144.643    -4286258.483 9   5250031.881 6
 88  3 22  3 30 29.0800000  0  2G 6G 8
  21299919.433    21299921.249    -5420189.359 9   6125844.964 7
  20553191.408    20553193.069    -4301772.063 8   5237943.416 7
 88  3 22  3 30 59.0800000  0  2G 6G 8
  21290408.098    21290408.556    -5470179.088 9   6086891.940 8
                  20550371.893    -4316640.556 1
 88  3 22  3 31 29.0800000  0  2G 6G 8
  21280932.803    21280935.174    -5519972.469 9   6048091.928 9
  20547687.121    20547688.676    -4330756.100 9   5318135.837 7
 88  3 22  3 31 59.0800000  0  2G 6G 8
  21271497.295    21271496.470    -5569567.598 9   6009446.393 8
  20545132.971    20545134.008    -4344173.133 9   5307681.031 8
 88  3 22  3 32 29.0800000  0  2G 6G 8
  21262094.823    21262095.275    -5618962.229 9   5970957.104 7
  20542711.723    20542713.585    -4356891.344 9   5297770.769 8
 88  3 22  3 32 59.0800000  0  2G 6G 8
  21252732.561    21252734.073    -5668154.502 9   5932625.486 8
  20540426.405    20540428.111    -4368910.390 9   5288405.278 8
 88  3 22  3 33 29.0800000  0  2G 6G 8
  21243412.512    21243413.551    -5717142.291 9   5894453.195 9
  20538267.645    20538271.446    -4380230.503 8   5279584.436 8
 88  3 22  3 33 59.0800000  0  2G 6G 8
  21234131.681    21234131.781    -5765923.380 9   5856441.958 9
  20536249.504    20536251.553    -4390852.234 8   5271307.800 7
 88  3 22  3 34 29.0800000  0  2G 6G 8
  21224887.454    21224889.014    -5814495.886 9   5818593.290 9
  20534358.698    20534363.989    -4400775.610 8   5263575.296 7
 88  3 22  3 34 59.0800000  0  2G 6G 8
  21215684.501    21215683.829    -5862857.483 9   5780908.972 8
  20532605.106    20532607.474    -4410000.058 7   5256387.467 8
 88  3 22  3 35 29.0800000  0  3G 6G 8G11
  21206522.490    21206523.049    -5911006.301 9   5743390.429 7
  20530982.395    20530986.495    -4418526.089 7   5249743.804 7
                  27252216.022    -8759028.888 1
 88  3 22  3 35 59.0800000  0  3G 6G 8G11
  21197399.639    21197401.998    -5958940.008 9   5706039.526 9
  20529493.387    20529494.463    -4426353.835 7   5243644.319 7
                  26938904.976    -9770640.486 1
 88  3 22  3 36 29.0800000  0  3G 6G 8G11
  21188317.962    21188319.902    -6006656.655 9   5668857.730 8
  20528135.683    20528139.070    -4433483.507 9   5238088.746 8
                  26648021.630   -11562213.723 1
 88  3 22  3 36 59.0800000  0  3G 6G 8G11
  21179282.114    21179282.818    -6054153.944 9   5631846.885 8
  20526914.288    20526916.583    -4439915.394 8   5233076.929 8
                  26028089.165   -14138931.667 1
 88  3 22  3 37 29.0800000  0  3G 6G 8G11
  21170285.995    21170286.029    -6101429.877 9   5595008.523 8
  20525821.176    20525824.937    -4445649.801 9   5228608.564 8
                  25485788.364   -17491952.523 1
 88  3 22  3 37 59.0800000  0  3G 6G 8G11
  21161331.740    21161331.135    -6148482.298 9   5558344.345 8
  20524862.424    20524865.420    -4450686.734 9   5224683.709 8
                  24591687.408   -21626475.733 1
 88  3 22  3 38 29.0800000  0  3G 6G 8G11
  21152422.682    21152420.782    -6195309.074 9   5521855.949 8
  20524037.929    20524038.736    -4455027.017 9   5221301.697 8
                  23762038.711   -26541879.710 1
 88  3 22  3 38 59.0800000  0  3G 6G 8G11
  21143553.526    21143552.456    -6241907.926 9   5485545.168 8
  20523342.795    20523345.895    -4458670.810 9   5218462.403 9
                  22560993.131   -32241667.955 1
 88  3 22  3 39 29.0800000  0  3G 6G 8G11
  21134728.625    21134728.591    -6288276.911 9   5449413.499 8
  20522782.500    20522785.500    -4461618.387 7   5216165.603 8
                  21458981.582   -38341300.680 1
 88  3 22  3 39 59.0800000  0  3G 6G 8G11
  21125949.100    21125949.897    -6334413.808 7   5413462.683 3
  20522354.780    20522357.187    -4463870.631 8   5214410.645 8
                  19982587.530   -32254934.697 1
 88  3 22  3 40 29.0800000  0  3G 6G 8G11
  21117214.505    21117217.846    -6380316.447 9   5377694.454 9
  20522057.269    20522060.527    -4465427.933 9   5213197.174 8
                  18537872.528   -26949194.162 1
 88  3 22  3 40 59.0800000  0  3G 6G 8G11
  21108525.559    21108528.239    -6425982.480 9   5342110.538 9
  20521894.288    20521896.978    -4466290.962 8   5212524.722 8
                  16792239.666   -22427067.724 1
 88  3 22  3 41 29.0800000  0  3G 6G 8G11
  21099881.269    21099882.443    -6471410.159 9   5306712.369 8
  20521862.660    20521864.063    -4466460.004 8   5212393.024 7
                  27199814.724   -10886321.604 1
 88  3 22  3 41 59.0800000  0  3G 6G 8G11
  21091280.588    21091280.566    -6516596.838 2   5271501.994 1
  20521960.940    20521963.470    -4465935.720 9   5212801.562 8
                  26910462.501   -11838248.800 1
 88  3 22  3 42 29.0800000  0  3G 6G 8G11
  21082729.979    21082728.998    -6561540.442 9   5236481.021 8
  20522191.950    20522194.362    -4464718.809 7   5213749.842 9
                  26617085.660   -13570545.265 1
 88  3 22  3 42 59.0800000  0  3G 6G 8G11
  21074221.604    21074223.699    -6606238.814 9   5201651.148 8
  20522556.795    20522558.188    -4462810.073 8   5215237.155 8
                  26055135.125   -16087425.994 1
 88  3 22  3 43 29.0800000  0  3G 6G 8G11
  21065763.820    21065766.198    -6650689.965 8   5167013.945 8
  20523048.964    20523053.689    -4460210.220 9   5217263.030 8
                  25548791.054   -19380852.859 1
 88  3 22  3 43 59.0800000  0  3G 6G 8G11
  21057352.631    21057351.935    -6694891.545 9   5132571.143 8
  20523677.578    20523678.202    -4456919.961 9   5219826.901 8
                  24687116.208   -23455855.643 1
 88  3 22  3 44 29.0800000  0  3G 6G 8G11
  21048990.155    21048991.224    -6738841.314 9   5098324.604 9
  20524433.968    20524436.741    -4452939.915 8   5222928.252 9
                  23835491.163   -28311186.409 1
 88  3 22  3 44 59.0800000  0  3G 6G 8G11
  21040673.012    21040676.896    -6782537.068 9   5064275.954 9
  20525322.414    20525323.603    -4448271.015 8   5226566.359 8
                  22644584.611   -33951533.433 1
 88  3 22  3 45 29.0800000  0  3G 6G 8G11
  21032408.219    21032411.739    -6825976.675 9   5030426.919 9
  20526344.936    20526344.351    -4442914.124 8   5230740.593 8
                  21444920.914   -40366319.626 1
 88  3 22  3 45 59.0800000  0  3G 6G 8G11
  21024191.442    21024191.536    -6869157.910 9   4996779.234 9
  20527490.489    20527494.487    -4436869.905 9   5235450.371 8
                  20306622.972   -34864754.782 1
 88  3 22  3 46 29.0800000  0  3G 6G 8G11
  21016023.673    21016024.028    -6912078.381 9   4963334.745 8
  20528772.320    20528774.892    -4430139.354 8   5240694.983 8
                  18553401.809   -29500085.082 1
 88  3 22  3 46 59.0800000  0  3G 6G 8G11
  21007907.960    21007908.282    -6954736.032 9   4930095.041 8
  20530184.614    20530186.738    -4422723.336 8   5246473.724 8
                  17070677.486   -24919224.907 1
 88  3 22  3 47 29.0800000  0  3G 6G 8G11
  20999839.373    20999839.047    -6997128.632 5   4897061.863 3
  20531726.770    20531727.999    -4414623.061 8   5252785.655 8
                  25678829.601   -12953298.591 1
 88  3 22  3 47 59.0800000  0  3G 6G 8G11
  20991823.038    20991822.619    -7039254.003 9   4864236.916 7
  20533397.033    20533397.103    -4405839.319 7   5259630.161 7
                  25508386.539   -13588353.858 1
 88  3 22  3 48 29.0800000  0  3G 6G 8G11
  20983855.913    20983858.243    -7081109.797 8   4831622.046 9
  20535199.819    20535201.014    -4396373.001 7   5267006.539 8
                  25358666.758   -15004627.299 1
 88  3 22  3 48 59.0800000  0  3G 6G 8G11
  20975943.589    20975942.937    -7122693.784 8   4799218.985 8
  20537130.230    20537131.241    -4386225.139 8   5274914.007 8
                  24892489.766   -17203014.787 1
 88  3 22  3 49 29.0800000  0  3G 6G 8G11
  20968082.907    20968082.397    -7164003.697 8   4767029.454 8
  20539190.897    20539193.161    -4375397.209 8   5283351.355 8
                  24317520.977   -20177927.108 1
 88  3 22  3 49 59.0800000  0  3G 6G 8G11
  20960275.760    20960276.300    -7205037.416 8   4735055.112 9
  20541380.418    20541382.385    -4363889.949 9   5292318.068 9
                  23545168.318   -23935998.596 1
 88  3 22  3 50 29.0800000  0  3G 6G 8G11
  20952519.033    20952521.180    -7245792.613 9   4703297.825 9
  20543699.058    20543701.375    -4351704.823 8   5301812.963 8
                  22806165.181   -28475157.340 1
 88  3 22  3 50 59.0800000  0  3G 6G 8G11
  20944815.667    20944819.227    -7286267.126 8   4671759.257 8
  20546145.136    20546146.794    -4338842.813 9   5311835.350 8
                  21720528.721   -33796386.133 1
 88  3 22  3 51 29.0800000  0  3G 6G 8G11
  20937168.578    20937171.684    -7326458.542 9   4640441.274 9
  20548721.932    20548724.351    -4325305.338 8   5322384.011 8
                  20503752.791   -39894537.567 1
 88  3 22  3 51 59.0800000  0  3G 6G 8G11
  20929575.124    20929578.255    -7366364.881 8   4609345.451 9
  20551425.853    20551428.559    -4311093.836 8   5333457.921 8
                  19159091.771   -39502577.984 1
 88  3 22  3 52 29.0800000  0  4G 6G 8G11G 9
  20922037.412    20922039.567    -7405983.419 9   4578473.889 8
  20554259.363    20554260.932    -4296209.239 9   5345056.314 7
                  17833036.170   -33821218.104 1
                  23059909.377   -14677266.419 9
 88  3 22  3 52 59.0800000  0  4G 6G 8G11G 9
  20914552.032    20914555.990    -7445312.226 9   4547828.079 8
  20557219.013    20557221.966    -4280652.953 8   5357178.134 8
                  16149751.025   -28920632.211 1
  23042981.275    23042982.710   -14766359.268 9  18721990.785 9
 88  3 22  3 53 29.0800000  0  4G 6G 8G11G 9
  20907124.153    20907126.387    -7484348.999 9   4517409.851 9
  20560308.016    20560309.723    -4264425.949 9   5369822.548 8
                  27049807.052   -15113120.871 1
  23026037.141    23026036.758   -14855412.945 9  18652598.402 8
 88  3 22  3 53 59.0800000  0  4G 6G 8G11G 9
  20899750.925    20899752.795    -7523091.685 9   4487220.764 9
  20563522.909    20563523.989    -4247530.244 9   5382988.056 7
                  26926861.338   -15612535.633 1
  23009095.838    23009097.948   -14944425.772 9  18583237.823 8
 88  3 22  3 54 29.0800000  0  4G 6G 8G11G 9
  20892433.885    20892437.329    -7561537.870 7   4457262.693 7
  20566865.263    20566867.391    -4229967.113 9   5396673.625 9
                  26802489.023   -16894067.576 1
  22992164.874    22992168.725   -15033395.815 9  18513910.567 8
 88  3 22  3 54 59.0800000  0  4G 6G 8G11G 9
  20885176.033    20885179.020    -7599685.159 9   4427537.514 8
  20570333.268    20570335.503    -4211737.635 9   5410878.427 8
                  26332472.199   -18954013.500 1
  22975243.617    22975247.087   -15122321.175 8  18444618.128 8
 88  3 22  3 55 29.0800000  0  4G 6G 8G11G 9
  20877975.361    20877975.808    -7637531.416 9   4398046.950 7
  20573930.301    20573930.646    -4192843.187 9   5425601.383 9
                  25948484.972   -21796950.907 1
  22958330.923    22958333.660   -15211200.203 9  18375361.814 8
 88  3 22  3 55 59.0800000  0  4G 6G 8G11G 9
  20870830.199    20870830.879    -7675074.372 9   4368792.737 7
  20577650.612    20577651.743    -4173285.585 8   5440841.073 8
                  25168495.374   -25419594.968 1
  22941426.943    22941429.544   -15300030.914 9  18306143.146 8
 88  3 22  3 56 29.0800000  0  4G 6G 8G11G 9
  20863745.794    20863744.459    -7712311.884 9   4339776.533 8
  20581499.637    20581499.094    -4153066.194 8   5456596.486 7
                  24474863.505   -29823505.842 1
  22924532.362    22924534.194   -15388811.374 9  18236963.630 8
 88  3 22  3 56 59.0800000  0  4G 6G 8G11G 9
  20856716.320    20856718.361    -7749241.483 9   4311000.226 8
  20585471.091    20585474.217    -4132186.585 9   5472866.290 8
                  23486369.986   -35005385.340 1
  22907648.022    22907648.473   -15477539.996 9  18167824.513 7
 88  3 22  3 57 29.0800000  0  4G 6G 8G11G 9
  20849748.186    20849749.987    -7785860.973 9   4282465.565 8
  20589569.492    20589573.821    -4110648.549 8   5489649.181 6
                  22245974.748   -40972016.918 1
  22890773.028    22890775.735   -15566214.553 8  18098727.509 8
 88  3 22  3 57 59.0800000  0  4G 6G 8G11G 9
  20842839.036    20842841.051    -7822168.046 9   4254174.331 8
  20593794.458    20593796.100    -4088453.705 9   5506943.869 8
                  21117596.298   -42870869.118 1
  22873909.138    22873911.706   -15654833.104 9  18029674.165 9
 88  3 22  3 58 29.0800000  0  4G 6G 8G11G 9
  20835990.238    20835990.703    -7858160.482 9   4226128.280 8
  20598141.400    20598141.987    -4065603.194 8   5524749.494 6
                  19569985.234   -37052490.818 1
  22857056.618    22857057.609   -15743393.969 8  17960665.804 9
 88  3 22  3 58 59.0800000  0  4G 6G 8G11G 9
  20829199.437    20829202.079    -7893836.085 9   4198329.113 8
  20602616.072    20602618.224    -4042098.699 9   5543064.701 7
                  18019604.096   -32014049.608 1
  22840216.632    22840218.491   -15831894.898 8  17891704.116 9
 88  3 22  3 59 29.0800000  0  4G 6G 8G11G 9
  20822472.329    20822476.275    -7929192.465 8   4170778.689 8
  20607212.201    20607214.006    -4017942.313 9   5561887.861 7
                  16185123.950   -27760158.663 1
  22823387.534    22823388.996   -15920334.235 9  17822790.436 8
 88  3 22  3 59 59.0800000  0  4G 6G 8G11G 9
                  20814836.479                     4139508.298 1
  20611934.610    20611932.919    -3993135.972 9   5581217.517 7
                  21499899.600   -17390741.668 8
  22806570.160    22806571.646   -16008710.144 9  17753926.169 8
 88  3 22  4  0 29.0800000  0  4G 6G 8G11G 9
                  20809177.107                   -17496206.952 9
  20616776.344    20616777.838    -3967681.066 7   5601052.516 6
  21487718.876    21487721.177   -17454878.111 6  22254650.918 5
  22789765.752    22789766.376   -16097020.245 8  17685113.176 7
 88  3 22  4  0 59.0800000  0  4G 6G 8G11G 9
  20802656.150    20802634.143   -17530592.708 9  22558418.043 1
  20621743.248    20621744.171    -3941579.337 1   5621391.533 1
  21475608.410    21475610.075   -17518523.551 9  22205057.099 7
  22772973.413    22772973.626   -16185262.839 9  17616352.772 8
 88  3 22  4  1 29.0800000  0  4G 6G 8G11G 9
  20796175.221    20796178.179   -17564650.081 9  22531879.562 8
  20626832.943    20626833.289    -3914832.845 9   5642232.963 8
  21463588.470    21463592.716   -17581676.512 8  22155847.028 7
  22756193.583    22756194.739   -16273435.863 8  17547646.581 9
 88  3 22  4  1 59.0800000  0  4G 6G 8G11G 9
  20789758.459    20789760.783   -17598376.863 9  22505598.941 8
  20632044.491    20632046.009    -3887443.522 8   5663575.324 8
  21451668.557    21451668.106   -17644335.764 9  22107021.670 7
  22739428.968    22739429.884   -16361537.280 9  17478996.174 9
 88  3 22  4  2 29.0800000  0  3G 6G 8G 9
  20783402.311    20783404.744   -17631770.968 9  22479577.579 9
  20637378.594    20637377.909    -3859412.826 1   5685417.429 1
  22722677.369    22722678.981   -16449564.921 9  17410403.263 7
 88  3 22  4  2 59.0800000  0  3G 6G 8G 9
  20777113.698    20777113.888   -17664830.232 9  22453817.135 9
  20642834.105    20642836.137    -3830743.116 9   5707757.487 8
  22705939.348    22705941.728   -16537517.245 9  17341869.035 9
 88  3 22  4  3 29.0800000  0  3G 6G 8G 9
  20770886.966    20770888.196   -17697552.239 8  22428319.489 9
  20648412.642    20648411.221    -3801436.135 8   5730594.131 7
  22689217.720    22689218.186   -16625391.714 9  17273395.520 8
 88  3 22  4  3 59.0800000  0  3G 6G 8G 9
  20764724.832    20764726.391   -17729934.580 9  22403086.489 9
  20654109.295    20654111.255    -3771493.457 8   5753926.069 8
  22672510.591    22672512.073   -16713186.475 9  17204984.093 8
 88  3 22  4  4 29.0800000  0  3G 6G 8G 9
  20758627.518    20758630.007   -17761975.420 9  22378119.587 8
  20659928.966    20659927.023    -3740917.584 1   5777751.452 1
  22655818.922    22655820.985   -16800899.471 7  17136636.369 8
 88  3 22  4  4 59.0800000  0  4G 6G 8G11G 9
  20752594.910    20752596.230   -17793672.249 9  22353420.796 8
  20665866.977    20665869.509    -3709709.969 8   5802069.063 7
                  21382113.257   -19088086.137 8
  22639144.729    22639145.692   -16888528.515 9  17068354.024 7
 88  3 22  4  5 29.0800000  0  4G 6G 8G11G 9
  20746629.359    20746629.956   -17825022.837 9  22328991.773 8
  20671924.428    20671926.128    -3677872.291 8   5826877.693 8
  21370855.478    21370859.121   -19147248.270 8  24382371.575 8
  22622486.641    22622486.822   -16976071.541 9  17000138.737 8
 88  3 22  4  5 59.0800000  0  4G 6G 8G11G 9
  20740731.176    20740731.667   -17856025.009 9  22304834.223 7
  20678103.415    20678103.166    -3645407.294 9   5852175.077 7
  21359692.988    21359697.166   -19205905.994 9  24336664.316 8
  22605842.949    22605845.071   -17063526.424 9  16931992.118 9
 88  3 22  4  6 29.0800000  0  4G 6G 8G11G 9
  20734896.999    20734899.422   -17886676.381 9  22280950.063 8
  20684400.828    20684400.885    -3612317.334 9   5877959.473 8
  21348628.930    21348630.861   -19264057.494 9  24291351.469 8
  22589217.991    22589218.883   -17150890.976 8  16863915.873 8
 88  3 22  4  6 59.0800000  0  4G 6G 8G11G 9
  20729132.826    20729131.110   -17916974.863 9  22257340.897 9
  20690815.386    20690817.416    -3578604.429 9   5904229.265 8
  21337657.942    21337658.861   -19321701.487 8  24246434.132 7
  22572610.168    22572612.323   -17238163.303 8  16795911.506 8
 88  3 22  4  7 29.0800000  0  4G 6G 8G11G 9
  20723432.669    20723433.522   -17946918.059 9  22234008.529 8
  20697346.741    20697348.495    -3544270.171 9   5930983.218 8
  21326786.247    21326787.530   -19378836.614 9  24201913.246 7
  22556021.058    22556023.086   -17325340.944 8  16727980.944 7
 88  3 22  4  7 59.0800000  0  4G 6G 8G11G 9
  20717802.756    20717804.896   -17976503.801 9  22210954.707 9
  20704001.364    20704000.404    -3509316.744 9   5958219.665 7
  21316009.077    21316012.468   -19435461.817 9  24157789.735 8
  22539450.905    22539450.374   -17412421.987 9  16660125.649 8
 88  3 22  4  8 29.0800000  0  4G 6G 8G11G 9
  20712240.947    20712242.607   -18005730.059 9  22188181.022 9
  20710768.976    20710771.909    -3473746.182 9   5985936.979 8
  21305331.811    21305334.366   -19491575.943 9  24114064.492 8
  22522899.817    22522899.081   -17499404.063 9  16592347.432 7
 88  3 22  4  8 59.0800000  0  4G 6G 8G11G 9
  20706747.706    20706750.481   -18034594.339 9  22165689.374 9
  20717655.280    20717656.908    -3437560.840 9   6014133.354 7
  21294751.399    21294753.449   -19547177.536 8  24070738.573 7
  22506365.995    22506368.696   -17586285.224 9  16524647.846 7
 88  3 22  4  9 29.0800000  0  4G 6G 8G11G 9
  20701325.093    20701326.878   -18063094.527 9  22143481.465 8
  20724655.032    20724658.473    -3400762.970 9   6042807.011 7
  21284267.542    21284270.528   -19602265.574 9  24027812.840 8
  22489852.206    22489856.661   -17673063.183 8  16457028.672 8
 88  3 22  4  9 59.0800000  0  4G 6G 8G11G 9
  20695971.309    20695973.044   -18091228.343 9  22121559.012 8
  20731777.588    20731776.950    -3363354.777 9   6071956.319 8
  21273884.628    21273886.698   -19656839.208 9  23985287.994 8
  22473357.960    22473361.264   -17759735.730 9  16389491.674 8
 88  3 22  4 10 29.0800000  0  4G 6G 8G11G 9
  20690688.198    20690689.853   -18118993.556 9  22099923.808 8
  20739009.735    20739010.893    -3325338.402 8   6101579.460 8
  21263596.835    21263599.053   -19710897.120 9  23943164.979 8
  22456885.138    22456886.267   -17846300.802 8  16322038.419 8
 88  3 22  4 10 59.0800000  0  4G 6G 8G11G 9
  20685474.881    20685473.606   -18146388.023 8  22078577.475 8
  20746360.510    20746361.059    -3286716.320 9   6131674.598 8
  21253409.007    21253410.658   -19764438.263 9  23901444.605 7
  22440434.784    22440435.956   -17932755.694 9  16254671.024 9
 88  3 22  4 11 29.0800000  0  4G 6G 8G11G 9
  20680333.740    20680333.916   -18173409.498 9  22057521.768 8
  20753823.252    20753825.786    -3247490.871 9   6162239.907 8
  21243317.037    21243320.304   -19817461.470 8  23860127.833 8
  22424004.595    22424005.432   -18019098.637 9  16187390.866 8
 88  3 22  4 11 59.0800000  0  4G 6G 8G11G 9
  20675263.573    20675264.427   -18200055.881 9  22036758.349 8
  20761402.626    20761403.894    -3207664.656 9   6193273.328 8
  21233325.641    21233330.087   -19869965.668 9  23819215.510 9
  22407595.185    22407597.024   -18105327.173 9  16120199.842 9
 88  3 22  4 12 29.0800000  0  4G 6G 8G11G 9
  20670264.647    20670265.367   -18226324.994 9  22016288.930 8
  20769093.536    20769096.144    -3167239.661 8   6224773.325 8
  21223433.186    21223436.647   -19921949.915 9  23778708.339 8
  22391208.948    22391210.555   -18191439.184 9  16053099.626 8
 88  3 22  4 12 59.0800000  0  4G 6G 8G11G 9
  20665338.049    20665338.797   -18252214.442 8  21996115.351 8
  20776899.795    20776902.748    -3126217.772 8   6256738.447 9
  21213641.002    21213644.143   -19973412.996 8  23738607.231 7
  22374843.966    22374845.699   -18277432.286 9  15986092.046 8
 88  3 22  4 13 29.0800000  0  4G 6G 8G11G 9
  20660482.849    20660484.833   -18277722.132 9  21976239.224 9
  20784820.427    20784822.413    -3084601.798 7   6289166.453 8
  21203947.881    21203951.656   -20024354.042 9  23698912.931 9
  22358502.259    22358505.105   -18363304.412 9  15919178.728 8
 88  3 22  4 13 59.0800000  0  4G 6G 8G11G 9
  20655700.802    20655702.795   -18302845.947 9  21956662.244 8
  20792851.053    20792852.126    -3042394.359 8   6322055.425 8
  21194352.629    21194354.489   -20074772.200 9  23659626.058 9
  22342185.874    22342187.635   -18449052.903 8  15852361.767 9
 88  3 22  4 14 29.0800000  0  4G 6G 8G11G 9
  20650994.274    20650995.967   -18327583.686 9  21937386.052 7
  20800995.741    20800998.314    -2999597.567 8   6355403.561 8
  21184859.650    21184860.239   -20124666.560 8  23620747.374 7
  22325891.702    22325893.632   -18534675.745 9  15785642.718 8
 88  3 22  4 14 59.0800000  0  4G 6G 8G11G 9
  20646361.415    20646362.975   -18351933.118 9  21918412.457 8
  20809252.085    20809254.078    -2956214.082 9   6389208.869 9
  21175464.358    21175466.213   -20174036.121 9  23582277.628 7
  22309622.834    22309624.613   -18620170.551 9  15719023.453 8
 88  3 22  4 15 29.0800000  0  4G 6G 8G11G 9
  20641799.563    20641802.368   -18375892.164 8  21899743.076 8
  20817617.517    20817619.431    -2912246.326 9   6423469.444 8
  21166169.909    21166171.274   -20222879.979 8  23544217.508 8
  22293379.034    22293378.986   -18705534.951 9  15652505.784 9
 88  3 22  4 15 59.0800000  0  4G 6G 8G11G 9
  20637318.534    20637318.372   -18399458.665 9  21881379.579 8
  20826097.893    20826098.593    -2867696.330 8   6458183.748 9
  21156975.154    21156977.273   -20271197.246 7  23506567.708 8
  22277159.123    22277161.446   -18790766.661 9  15586091.511 9
 88  3 22  4 16 29.0800000  0  4G 6G 8G11G 9
  20632909.018    20632907.964   -18422630.420 9  21863323.699 8
  20834684.185    20834685.782    -2822566.898 8   6493349.542 9
  21147881.867    21147882.775   -20318986.985 9  23469328.979 7
  22260966.238    22260968.026   -18875863.430 8  15519782.354 9
 88  3 22  4 16 59.0800000  0  4G 6G 8G11G 9
  20628574.005    20628577.552   -18445405.308 9  21845577.037 7
  20843380.935    20843384.056    -2776860.827 8   6528964.628 9
  21138886.804    21138888.966   -20366248.536 8  23432501.810 7
  22244800.754    22244801.872   -18960822.541 9  15453580.502 9
 88  3 22  4 17 29.0800000  0  4G 6G 8G11G 9
  20624316.118    20624318.393   -18467781.174 9  21828141.262 8
  20852188.622    20852189.748    -2730580.472 9   6565027.279 8
  21129993.719    21129996.047   -20412980.951 8  23396086.975 8
  22228659.599    22228661.029   -19045642.056 9  15387487.430 8
 88  3 22  4 17 59.0800000  0  4G 6G 8G11G 9
  20620133.565    20620134.413   -18489755.889 9  21811018.137 7
  20861104.225    20861106.174    -2683728.260 8   6601535.486 9
  21121202.218    21121204.900   -20459183.502 8  23360085.000 7
  22212546.567    22212547.007   -19130319.135 8  15321505.332 8
 88  3 22  4 18 29.0800000  0  4G 6G 8G11G 9
  20616030.551    20616031.166   -18511327.246 9  21794209.305 7
  20870127.083    20870130.833    -2636306.771 8   6638487.289 8
  21112511.396    21112513.292   -20504855.433 8  23324496.507 6
  22196458.688    22196459.806   -19214851.645 8  15255635.832 8
 88  3 22  4 18 59.0800000  0  4G 6G 8G11G 9
  20612002.226    20612001.353   -18532493.136 9  21777716.436 8
  20879259.738    20879260.404    -2588318.606 8   6675880.675 9
  21103920.722    21103921.967   -20549996.114 8  23289321.989 8
  22180401.205    22180402.105   -19299237.293 8  15189880.802 8
 88  3 22  4 19 29.0800000  0  4G 6G 8G11G 9
  20608052.756    20608049.841   -18553251.565 9  21761541.033 8
  20888497.700    20888501.899    -2539766.689 8   6713713.325 8
  21095431.590    21095435.437   -20594604.610 8  23254562.124 7
  22164371.324    22164372.501   -19383473.624 8  15124242.151 8
 88  3 22  4 19 59.0800000  0  4G 6G 8G11G 9
  20604179.047    20604180.568   -18573600.370 8  21745684.789 8
  20897844.391    20897847.086    -2490653.661 9   6751983.276 8
  21087044.273    21087047.221   -20638680.501 8  23220217.310 7
  22148370.032    22148372.289   -19467558.173 9  15058721.760 6
 88  3 22  4 20 29.0800000  0  4G 6G 8G11G 9
  20600382.970    20600385.627   -18593537.488 8  21730149.382 8
  20907294.592    20907299.585    -2440982.052 9   6790688.396 9
  21078759.008    21078760.451   -20682222.729 9  23186288.286 7
  22132399.561    22132399.419   -19551488.343 9  14993321.644 7
 88  3 22  4 20 59.0800000  0  4G 6G 8G11G 9
  20596670.859    20596671.389   -18613060.869 9  21714936.352 8
  20916856.245    20916855.944    -2390754.737 9   6829826.581 8
  21070575.030    21070576.469   -20725230.810 8  23152775.528 7
  22116457.919    22116458.979   -19635262.052 9  14928043.451 8
 88  3 22  4 21 29.0800000  0  4G 6G 8G11G 9
  20593036.562    20593034.888   -18632168.354 9  21700047.442 8
  20926518.144    20926518.736    -2339974.381 9   6869395.677 8
  21062491.592    21062493.308   -20767704.285 8  23119679.351 6
  22100546.898    22100547.512   -19718876.678 9  14862889.222 8
 88  3 22  4 21 59.0800000  0  4G 6G 8G11G 9
  20589478.686    20589479.320   -18650857.956 9  21685484.140 8
  20936285.689    20936288.505    -2288643.424 9   6909393.829 8
  21054511.994    21054514.353   -20809642.318 8  23087000.376 7
  22084664.816    22084667.325   -19802329.554 9  14797861.037 8
 88  3 22  4 22 29.0800000  0  4G 6G13G11G 9
  20586001.276    20586001.508   -18669127.586 9  21671248.041 8
                  24038247.961   -25497379.257 9
  21046632.811    21046634.666   -20851044.394 8  23054739.024 7
  22068817.443    22068818.143   -19885618.241 9  14732960.791 9
 88  3 22  4 22 59.0800000  0  4G 6G13G11G 9
  20582602.986    20582604.801   -18686975.244 9  21657340.745 8
  24017062.160    24017062.855   -25608822.911 9  32454880.753 6
  21038855.875    21038858.798   -20891910.044 9  23022895.684 7
  22052998.600    22053001.414   -19968740.461 9  14668190.266 9
 88  3 22  4 23 29.0800000  0  4G 6G13G11G 9
  20579288.589    20579292.308   -18704398.745 8  21643763.973 8
  23995895.528    23995896.566   -25720051.770 9  32368208.964 6
  21031182.720    21031183.880   -20932238.771 8  22991470.706 7
  22037211.459    22037213.615   -20051694.021 8  14603551.162 8
 88  3 22  4 23 59.0800000  0  4G 6G13G11G 9
  20576055.299    20576056.113   -18721396.220 9  21630519.200 8
  23974771.620    23974772.215   -25831063.317 9  32281706.495 6
  21023610.755    21023610.218   -20972029.821 8  22960464.710 7
  22021459.530    22021461.733   -20134475.684 9  14539046.022 7
 88  3 22  4 24 29.0800000  0  4G 6G13G11G 9
  20572902.559    20572902.527   -18737965.636 9  21617607.967 7
  23953687.389    23953690.545   -25941855.046 9  32195375.275 7
  21016141.790    21016142.665   -21011283.105 8  22929877.783 8
  22005741.763    22005741.527   -20217083.486 9  14474676.302 8
 88  3 22  4 24 59.0800000  0  4G 6G13G11G 9
  20569832.498    20569830.487   -18754104.842 8  21605031.982 8
  23932647.170    23932649.399   -26052424.668 9  32109217.159 6
  21008774.086    21008775.868   -21049998.179 9  22899710.192 8
  21990053.602    21990056.175   -20299514.682 9  14410444.219 8
 88  3 22  4 25 29.0800000  0  4G 6G13G11G 9
  20566840.120    20566843.223   -18769811.838 8  21592792.741 7
  23911648.503    23911650.969   -26162769.270 9  32023234.406 7
  21001510.287    21001511.492   -21088174.261 8  22869962.619 7
  21974402.405    21974404.773   -20381766.888 9  14346351.641 9
 88  3 22  4 25 59.0800000  0  4G 6G13G11G 9
  20563934.801    20563935.671   -18785084.758 9  21580891.761 8
  23890694.210    23890695.908   -26272886.655 9  31937428.714 7
  20994347.110    20994348.308   -21125811.341 9  22840635.031 8
  21958783.915    21958784.763   -20463837.591 9  14282400.495 8
 88  3 22  4 26 29.0800000  0  4G 6G13G11G 9
  20561113.137    20561112.485   -18799921.647 9  21569330.545 9
  23869782.980    23869782.582   -26382774.811 8  31851801.624 6
  20987288.717    20987289.516   -21162908.595 9  22811728.093 8
  21943202.178    21943201.321   -20545724.249 9  14218592.738 8
 88  3 22  4 26 59.0800000  0  4G 6G13G11G 9
  20558373.608    20558372.188   -18814320.458 9  21558110.717 8
  23848914.708    23848916.982   -26492431.286 9  31766355.073 7
  20980330.878    20980334.960   -21199465.879 8  22783241.918 7
  21927655.322    21927653.970   -20627424.085 9  14154930.547 8
 88  3 22  4 27 29.0800000  0  4G 6G13G11G 9
  20555716.013    20555716.564   -18828279.205 9  21547233.746 9
  23828092.593    23828094.811   -26601853.149 8  31681091.323 6
  20973477.042    20973477.568   -21235482.718 8  22755176.886 7
  21912144.418    21912146.157   -20708934.286 9  14091416.152 9
 88  3 22  4 27 59.0800000  0  4G 6G13G11G 9
  20553144.942    20553144.592   -18841796.097 9  21536701.132 9
  23807315.532    23807318.374   -26711038.925 9  31596011.536 7
  20966726.146    20966727.524   -21270959.030 8  22727532.999 7
  21896668.708    21896671.455   -20790253.179 8  14028050.815 9
 88  3 22  4 28 29.0800000  0  4G 6G13G11G 9
  20550655.710    20550657.206   -18854868.963 9  21526514.461 9
  23786584.043    23786587.532   -26819986.188 8  31511117.598 6
  20960077.295    20960080.131   -21305894.192 8  22700310.817 7
  21881231.459    21881234.381   -20871377.515 9  13964837.078 9
 88  3 22  4 28 59.0800000  0  4G 6G13G11G 9
  20548252.437    20548254.795   -18867495.944 8  21516675.276 8
  23765898.735    23765903.148   -26928691.572 8  31426412.156 8
  20953532.647    20953535.362   -21340288.049 8  22673510.434 8
  21865830.909    21865835.346   -20952304.806 9  13901776.855 9
 88  3 22  4 29 29.0800000  0  4G 6G13G11G 9
  20545933.689    20545934.673   -18879675.100 8  21507184.999 8
  23745257.949    23745262.751   -27037153.424 7  31341896.483 8
  20947090.253    20947092.831   -21374140.356 8  22647132.041 7
  21850469.380    21850473.705   -21033032.543 9  13838872.135 9
 88  3 22  4 29 59.0800000  0  4G 6G13G11G 9
  20543704.263    20543705.683   -18891404.663 8  21498045.086 9
  23724667.153    23724668.830   -27145369.439 8  31257572.387 9
  20940752.092    20940754.443   -21407450.972 8  22621175.723 7
  21835146.806    21835149.072   -21113558.153 8  13776124.930 9
 88  3 22  4 30 29.0800000  0  4G 6G13G11G 9
  20541557.096    20541560.076   -18902682.628 8  21489257.033 8
  23704122.038    23704122.787   -27253336.802 8  31173442.013 8
  20934515.965    20934517.918   -21440219.783 8  22595641.632 7
  21819861.156    21819863.876   -21193878.971 8  13713537.321 9
 88  3 22  4 30 59.0800000  0  4G 6G13G11G 9
  20539495.094    20539499.237   -18913507.152 9  21480822.320 8
  23683622.684    23683625.173   -27361053.078 9  31089507.272 8
  20928383.860    20928387.746   -21472446.297 8  22570530.064 8
  21804616.687    21804618.904   -21273992.180 9  13651111.476 9
 88  3 22  4 31 29.0800000  0  4G 6G13G11G 9
  20537523.435    20537525.713   -18923876.389 8  21472742.388 8
  23663171.832    23663176.193   -27468516.516 9  31005769.541 8
  20922355.489    20922356.659   -21504130.686 9  22545840.945 7
  21789412.136    21789414.635   -21353895.584 9  13588849.070 8
 88  3 22  4 31 59.0800000  0  4G 6G13G11G 9
  20535636.592    20535639.751   -18933788.464 8  21465018.698 8
  23642771.085    23642774.084   -27575724.886 9  30922230.572 7
  20916427.175    20916430.347   -21535272.735 7  22521574.424 7
  21774247.334    21774249.527   -21433586.402 8  13526752.381 7
 88  3 22  4 32 29.0800000  0  4G 6G13G11G 9
  20533838.850    20533837.880   -18943241.533 9  21457652.707 7
  23622418.486    23622421.794   -27682675.389 9  30838892.545 8
  20910605.891    20910608.005   -21565872.326 8  22497730.633 8
  21759124.955    21759124.851   -21513061.615 9  13464823.677 8
 88  3 22  4 32 59.0800000  0  4G 6G13G11G 9
  20532127.613    20532127.778   -18952233.732 9  21450645.804 7
  23602116.034    23602119.197   -27789366.052 8  30755756.995 7
  20904885.898    20904888.788   -21595929.372 7  22474309.546 8
  21744042.114    21744043.514   -21592318.882 9  13403064.775 8
 88  3 22  4 33 29.0800000  0  4G 6G13G11G 9
  20530505.289    20530507.490   -18960763.284 8  21443999.388 7
  23581864.323    23581866.464   -27895794.840 9  30672825.499 8
  20899268.699    20899270.978   -21625443.831 7  22451311.266 8
  21729001.633    21729001.910   -21671355.626 9  13341477.735 7
 88  3 22  4 33 59.0800000  0  4G 6G13G11G 9
  20528970.560    20528969.490   -18968828.394 9  21437714.886 8
  23561660.906    23561663.946   -28001959.088 8  30590100.168 8
  20893756.250    20893761.347   -21654415.755 9  22428735.760 8
  21714002.678    21714003.839   -21750168.938 8  13280064.774 8
 88  3 22  4 34 29.0800000  0  4G 6G13G11G 9
  20527522.641    20527524.118   -18976427.236 8  21431793.715 9
  23541510.527    23541511.131   -28107856.440 9  30507582.786 9
  20888347.214    20888349.144   -21682844.865 8  22406583.242 8
  21699047.972    21699048.738   -21828756.216 9  13218827.925 8
 88  3 22  4 34 59.0800000  0  4G 6G13G11G 9
  20526167.293    20526167.348   -18983557.999 9  21426237.274 8
  23521409.647    23521411.198   -28213484.723 8  30425275.062 8
  20883039.135    20883042.912   -21710731.292 8  22384853.567 8
  21684137.128    21684137.545   -21907114.947 8  13157769.218 8
 88  3 22  4 35 29.0800000  0  4G 6G13G11G 9
  20524898.029    20524901.327   -18990219.024 9  21421046.872 9
  23501362.171    23501363.471   -28318841.850 8  30343178.631 8
  20877835.145    20877838.498   -21738075.047 7  22363546.753 7
  21669271.249    21669269.493   -21985242.206 8  13096890.884 8
 88  3 22  4 35 59.0800000  0  4G 6G13G11G 9
  20523722.352    20523722.364   -18996408.466 9  21416223.891 8
  23481364.417    23481366.289   -28423925.191 8  30261295.571 8
  20872735.445    20872737.623   -21764876.291 7  22342662.688 8
  21654449.443    21654449.559   -22063135.457 9  13036194.867 8
 88  3 22  4 36 29.0800000  0  4G 6G13G11G 9
  20522632.263    20522636.066   -19002124.669 9  21411769.705 8
  23461420.191    23461423.081   -28528732.916 8  30179627.217 8
  20867737.958    20867741.930   -21791135.189 8  22322201.215 8
  21639670.674    21639670.609   -22140792.141 9  12975683.178 9
 88  3 22  4 36 59.0800000  0  4G 6G13G11G 9
  20521637.463    20521638.209   -19007365.869 9  21407685.627 9
  23441529.112    23441530.798   -28633262.541 9  30098175.573 8
  20862844.827    20862847.337   -21816851.839 7  22302162.298 8
  21624938.184    21624938.975   -22218209.126 7  12915358.317 8
 88  3 22  4 37 29.0800000  0  4G 6G13G11G 9
  20520728.576    20520731.482   -19012130.320 9  21403973.076 9
  23421691.226    23421692.797   -28737511.750 8  30016942.450 9
  20858055.064    20858058.748   -21842025.909 8  22282546.145 8
  21610252.377    21610252.425   -22295384.117 7  12855221.985 8
 88  3 22  4 37 59.0800000  0  4G 6G13G11G 9
  20519914.387    20519914.599   -19016416.443 8  21400633.243 8
  23401906.123    23401909.011   -28841478.401 9  29935929.494 9
  20853368.653    20853369.527   -21866657.777 9  22263352.503 8
  21595610.842    21595614.137   -22372314.322 9  12795276.349 9
 88  3 22  4 38 29.0800000  0  4G 6G13G11G 9
  20519189.773    20519190.181   -19020222.432 8  21397667.541 7
  23382176.607    23382177.671   -28945160.216 8  29855138.533 8
  20848782.782    20848787.708   -21890747.699 8  22244581.164 7
  21581019.745    21581021.613   -22448996.846 9  12735523.745 8
 88  3 22  4 38 59.0800000  0  4G 6G13G11G 9
  20518557.354    20518557.294   -19023546.652 9  21395077.255 8
  23362500.205    23362502.950   -29048555.550 7  29774570.805 8
  20844302.272    20844303.150   -21914295.877 8  22226231.950 8
  21566475.514    21566477.672   -22525429.058 9  12675966.194 8
 88  3 22  4 39 29.0800000  0  4G 6G13G11G 9
  20518016.413    20518016.388   -19026387.456 8  21392863.621 8
  23342880.068    23342883.823   -29151661.703 8  29694228.408 7
  20839924.245    20839926.915   -21937302.470 7  22208304.752 9
  21551981.067    21551980.943   -22601607.737 9  12616606.198 8
 88  3 22  4 39 59.0800000  0  4G 6G13G11G 9
  20517568.778    20517571.160   -19028743.250 9  21391027.917 8
  23323314.526    23323317.102   -29254476.436 9  29614113.030 7
  20835649.261    20835652.242   -21959767.750 8  22190799.388 9
  21537533.906    21537534.365   -22677530.959 9  12557445.277 9
 88  3 22  4 40 29.0800000  0  4G 6G13G11G 9
  20517211.316    20517212.983   -19030612.304 9  21389571.504 8
  23303806.123    23303809.878   -29356997.239 9  29534226.666 7
  20831476.898    20831479.493   -21981691.818 8  22173715.693 7
  21523133.471    21523135.357   -22753195.269 9  12498486.098 9
 88  3 22  4 40 59.0800000  0  4G 6G13G11G 9
  20516949.700    20516949.969   -19031993.189 9  21388495.477 8
  23284352.090    23284355.948   -29459222.592 9  29454570.569 7
  20827410.663    20827410.868   -22003075.364 8  22157053.210 8
  21508784.068    21508785.183   -22828598.444 9  12439730.412 9
 88  3 22  4 41 29.0800000  0  4G 6G13G11G 9
  20516781.212    20516780.919   -19032884.267 9  21387801.162 8
  23264957.483    23264960.382   -29561150.181 9  29375146.503 8
  20823442.218    20823445.300   -22023918.356 8  22140811.923 8
  21494487.601    21494486.528   -22903737.644 8  12381180.375 8
 88  3 22  4 41 59.0800000  0  4G 6G13G11G 9
  20516705.130    20516705.737   -19033283.887 8  21387489.748 7
  23245618.017    23245620.873   -29662778.235 9  29295955.857 7
  20819579.988    20819581.198   -22044221.082 8  22124991.641 8
  21480241.774    21480239.300   -22978609.735 9  12322838.506 8
 88  3 22  4 42 29.0800000  0  4G 6G13G11G 9
  20516721.137    20516721.002   -19033190.544 9  21387562.483 8
  23226336.129    23226337.606   -29764104.137 9  29217000.599 7
  20815816.079    20815821.666   -22063983.927 8  22109592.008 8
  21466043.132    21466044.903   -23053212.351 9  12264706.602 9
 88  3 22  4 42 59.0800000  0  4G 6G13G11G 9
  20516835.399    20516833.241   -19032602.727 8  21388020.511 8
  23207112.669    23207116.028   -29865126.047 9  29138282.229 6
  20812159.043    20812162.698   -22083207.308 8  22094612.771 8
  21451896.777    21451898.846   -23127542.448 9  12206787.059 9
 88  3 22  4 43 29.0800000  0  4G 6G13G11G 9
  20517038.389    20517042.814   -19031518.982 8  21388864.958 8
  23187947.226    23187949.358   -29965842.015 9  29059802.289 7
  20808605.499    20808606.309   -22101891.673 8  22080053.541 8
  21437806.851    21437805.384   -23201597.447 9  12149081.880 7
 88  3 22  4 43 59.0800000  0  4G 6G13G11G 9
  20517339.711    20517342.227   -19029937.626 8  21390097.173 8
  23168840.256    23168841.647   -30066249.138 9  28981562.989 7
  20805151.363    20805153.756   -22120037.557 8  22065913.918 7
  21423767.728    21423766.816   -23275374.280 8  12091593.452 9
 88  3 22  4 44 29.0800000  0  4G 6G13G11G 9
  20517737.400    20517737.714   -19027857.336 8  21391718.161 7
  23149792.664    23149793.296   -30166346.102 9  28903565.360 7
  20801801.017    20801803.783   -22137645.234 8  22052193.665 8
  21409780.180    21409781.542   -23348870.651 9  12034323.587 7
 88  3 22  4 44 59.0800000  0  4G 6G13G11G 9
  20518228.573    20518230.007   -19025276.547 8  21393729.159 7
  23130804.392    23130805.496   -30266130.607 9  28825811.214 8
  20798550.636    20798555.850   -22154715.274 9  22038892.357 8
  21395847.745    21395848.757   -23422083.149 9  11977274.895 8
 88  3 22  4 45 29.0800000  0  4G 6G13G11G 9
  20518812.859    20518816.578   -19022193.780 8  21396131.282 8
  23111874.418    23111876.770   -30365600.329 9  28748302.358 8
  20795406.311    20795409.213   -22171247.975 8  22026009.747 7
  21381972.890    21381971.603   -23495009.501 9  11920449.152 8
 88  3 22  4 45 59.0800000  0  4G 6G13G11G 9
  20519495.383    20519498.467   -19018607.646 7  21398925.662 9
  23093006.827    23093009.900   -30464753.467 9  28671040.209 9
  20792362.159    20792363.873   -22187244.151 8  22013545.205 7
  21368151.839    21368150.237   -23567646.406 9  11863848.986 8
 88  3 22  4 46 29.0800000  0  4G 6G13G11G 9
  20520273.479    20520277.516   -19014516.765 8  21402113.340 8
  23074197.343    23074202.545   -30563587.905 9  28594026.365 8
  20789418.945    20789422.491   -22202704.277 7  22001498.370 7
  21354383.098    21354383.514   -23639991.394 9  11807476.289 8
 88  3 22  4 46 59.0800000  0  4G 6G13G11G 9
  20521150.378    20521151.026   -19009919.707 8  21405695.460 9
  23055449.682    23055455.706   -30662101.449 8  28517262.587 8
  20786581.418    20786581.934   -22217628.608 8  21989869.036 7
  21340672.565    21340671.809   -23712041.643 9  11751333.246 8
 88  3 22  4 47 29.0800000  0  4G 6G13G11G 9
  20522121.180    20522125.260   -19004815.015 9  21409673.128 8
  23036767.421    23036769.910   -30760292.558 8  28440750.110 8
  20783841.425    20783843.190   -22232017.982 8  21978656.549 7
  21327017.844    21327017.634   -23783794.330 9  11695422.077 8
 88  3 22  4 47 59.0800000  0  4G 6G13G11G 9
  20523190.543    20523191.648   -18999201.498 8  21414047.316 9
  23018143.486    23018145.323   -30858159.606 7  28364490.119 8
  20781204.819    20781205.641   -22245872.950 9  21967860.510 6
  21313421.131    21313420.121   -23855246.524 9  11639745.092 8
 88  3 22  4 48 29.0800000  0  4G 6G13G11G 9
  20524355.745    20524355.004   -18993077.633 9  21418819.161 9
  22999582.421    22999585.363   -30955699.301 6  28288485.172 8
  20778669.749    20778672.923   -22259194.127 7  21957480.382 7
  21299882.083    21299882.285   -23926395.538 9  11584304.306 7
 88  3 22  4 48 59.0800000  0  4G 6G13G11G 9
  20525617.644    20525619.592   -18986442.119 8  21423989.676 9
  22981084.686    22981088.151   -31052910.314 8  28212736.391 8
  20776236.607    20776238.764   -22271982.239 8  21947515.597 6
  21286398.846    21286400.960   -23997238.448 8  11529102.010 8
 88  3 22  4 49 29.0800000  0  4G 6G13G11G 9
  20526978.805    20526980.978   -18979293.772 8  21429559.798 8
  22962648.256    22962652.200   -31149790.954 7  28137245.010 8
  20773902.780    20773906.592   -22284238.042 8  21937965.644 7
  21272979.542    21272978.686   -24067772.355 9  11474140.534 9
 88  3 22  4 49 59.0800000  0  4G 6G13G11G 9
  20528437.316    20528439.409   -18971631.197 8  21435530.622 8
  22944276.280    22944279.300   -31246338.560 7  28062013.170 8
  20771674.421    20771675.754   -22295962.106 8  21928830.030 8
  21259615.841    21259615.984   -24137994.671 8  11419421.862 9
 88  3 22  4 50 29.0800000  0  4G 6G13G11G 9
  20529992.057    20529993.100   -18963453.157 8  21441903.113 8
  22925967.301    22925970.792   -31342551.653 9  27987041.981 8
  20769544.397    20769545.906   -22307154.832 9  21920108.419 8
  21246311.438    21246312.920   -24207902.498 9  11364948.225 9
 88  3 22  4 50 59.0800000  0  4G 6G13G11G 9
  20531647.075    20531648.871   -18954758.304 9  21448678.295 7
  22907722.554    22907725.605   -31438427.840 9  27912333.272 8
  20767515.338    20767516.010   -22317817.158 8  21911800.129 6
  21233070.335    21233070.405   -24277492.822 9  11310722.026 8
 88  3 22  4 51 29.0800000  0  4G 6G13G11G 9
  20533399.183    20533400.679   -18945545.617 8  21455856.997 8
  22889541.979    22889545.628   -31533965.561 9  27837888.282 8
  20765587.265    20765588.349   -22327950.019 8  21903904.397 7
  21219887.819    21219890.240   -24346763.039 8  11256745.243 9
 88  3 22  4 51 59.0800000  0  4G 6G13G11G 9
  20535252.997    20535252.612   -18935813.693 8  21463440.306 8
  22871427.134    22871430.242   -31629163.368 9  27763708.172 7
  20763759.701    20763762.085   -22337554.174 9  21896420.654 8
  21206767.794    21206769.491   -24415710.128 9  11203020.235 7
 88  3 22  4 52 29.0800000  0  4G 6G13G11G 9
  20537204.621    20537204.624   -18925561.454 9  21471429.065 8
  22853376.460    22853376.489   -31724018.843 9  27689794.796 7
  20762032.405    20762033.475   -22346630.149 8  21889348.471 7
  21193708.855    21193711.913   -24484331.382 9  11149549.128 9
 88  3 22  4 52 59.0800000  0  4G 6G13G11G 9
  20539252.380    20539253.909   -18914787.608 9  21479824.254 8
  22835391.326    22835395.273   -31818530.546 9  27616149.310 8
  20760405.406    20760408.669   -22355178.814 8  21882687.175 7
  21180714.274    21180715.487   -24552624.089 8  11096334.064 7
 88  3 22  4 53 29.0800000  0  4G 6G13G11G 9
  20541403.891    20541405.572   -18903491.153 8  21488626.683 8
  22817471.149    22817474.675   -31912696.347 9  27542773.391 8
  20758880.415    20758879.296   -22363201.065 8  21876436.097 8
  21167780.275    21167782.140   -24620585.110 9  11043377.440 9
 88  3 22  4 53 59.0800000  0  4G 6G13G11G 9
  20543652.923    20543654.996   -18891670.882 9  21497837.261 9
  22799619.888    22799622.212   -32006514.077 9  27469668.701 7
  20757450.605    20757455.120   -22370698.037 9  21870594.290 7
  21154912.875    21154914.307   -24688211.730 9  10990681.386 8
 88  3 22  4 54 29.0800000  0  4G 6G13G11G 9
  20546002.831    20546001.006   -18879325.592 9  21507456.981 9
  22781832.682    22781835.560   -32099981.890 8  27396836.627 7
  20756125.661    20756126.606   -22377670.633 8  21865161.124 7
  21142107.656    21142109.206   -24755501.128 8  10938248.094 9
 88  3 22  4 54 59.0800000  0  4G 6G13G11G 9
  20548450.106    20548453.296   -18866454.202 8  21517486.621 8
  22764113.409    22764116.436   -32193097.773 9  27324278.831 7
  20754897.262    20754900.784   -22384119.119 8  21860136.341 7
  21129369.183    21129368.436   -24822450.374 9  10886079.873 8
 88  3 22  4 55 29.0800000  0  4G 6G13G11G 9
  20551001.779    20551003.775   -18853055.741 8  21527926.992 8
  22746461.166    22746464.474   -32285860.312 8  27251996.350 8
  20753770.623    20753772.097   -22390044.878 8  21855518.900 7
  21116693.695    21116694.165   -24889056.733 9  10834178.842 8
 88  3 22  4 55 59.0800000  0  4G 6G13G11G 9
  20553649.923    20553650.917   -18839129.052 9  21538778.924 8
  22728877.124    22728879.427   -32378267.931 7  27179990.494 9
  20752741.722    20752743.138   -22395449.208 8  21851307.751 8
  21104085.833    21104084.338   -24955317.268 9  10782547.277 8
 88  3 22  4 56 29.0800000  0  4G 6G13G11G 9
  20556403.765    20556405.407   -18824673.181 7  21550043.237 8
  22711362.094    22711363.917   -32470318.900 8  27108262.500 7
  20751811.934    20751814.760   -22400332.240 7  21847502.782 7
  21091540.820    21091542.880   -25021228.934 8  10731187.527 8
 88  3 22  4 56 59.0800000  0  4G 6G13G11G 9
  20559251.684    20559254.720   -18809687.062 8  21561720.704 8
  22693911.897    22693914.046   -32562010.925 9  27036814.189 8
  20750982.663    20750985.430   -22404695.248 8  21844103.067 7
  21079066.427    21079066.079   -25086789.361 9  10680101.482 8
 88  3 22  4 57 29.0800000  0  4G 6G13G11G 9
  20562206.899    20562208.690   -18794169.715 8  21573812.121 7
  22676531.420    22676533.289   -32653342.159 9  26965647.011 8
  20750251.214    20750251.782   -22408539.279 8  21841107.732 7
  21066658.380    21066659.179   -25151995.334 9  10629291.605 9
 88  3 22  4 57 59.0800000  0  4G 6G13G11G 9
  20565259.129    20565260.363   -18778120.138 8  21586318.296 7
  22659220.932    22659223.603   -32744311.138 9  26894762.107 8
  20749618.066    20749618.698   -22411865.118 8  21838516.162 8
  21054316.956    21054318.929   -25216844.128 9  10578760.113 9
 88  3 22  4 58 29.0800000  0  4G 6G13G11G 9
  20568416.265    20568418.781   -18761537.433 8  21599239.851 7
  22641979.896    22641981.335   -32834916.092 8  26824160.838 8
  20749083.672    20749086.165   -22414674.195 8  21836327.298 7
  21042047.677    21042046.447   -25281333.144 9  10528508.944 8
 88  3 22  4 58 59.0800000  0  4G 6G13G11G 9
  20571673.658    20571673.894   -18744420.638 9  21612577.630 8
  22624806.447    22624810.019   -32925155.060 9  26753844.793 7
  20748647.297    20748648.022   -22416967.382 8  21834540.410 8
  21029841.763    21029844.627   -25345458.977 8  10478540.748 8
 88  3 22  4 59 29.0800000  0  4G 6G13G11G 9
  20575031.414    20575033.891   -18726768.875 8  21626332.253 8
  22607706.133    22607708.532   -33015026.171 9  26683815.389 7
  20748308.327    20748311.450   -22418745.745 7  21833154.669 6
  21017711.795    21017709.448   -25409219.356 9  10428857.379 9
 88  3 22  4 59 59.0800000  0  4G 6G13G11G 9
  20578493.150    20578494.875   -18708581.061 8  21640504.547 8
  22590672.628    22590676.529   -33104528.204 9  26614073.553 8
  20748069.370    20748069.433   -22420010.455 8  21832169.191 8
  21005645.368    21005646.751   -25472611.106 9  10379461.198 7
 88  3 22  5  0 29.0800000  0  4G 6G13G11G 9
  20582055.604    20582059.112   -18689856.608 9  21655095.018 8
  22573712.370    22573715.998   -33193659.345 8  26544620.767 9
  20747925.016    20747928.351   -22420762.923 8  21831582.851 7
  20993654.124    20993654.389   -25535631.532 9  10330354.411 7
 88  3 22  5  0 59.0800000  0  4G 6G13G11G 9
  20585722.424    20585722.360   -18670594.649 9  21670104.306 8
  22556822.755    22556825.709   -33282418.214 9  26475458.063 7
  20747879.215    20747880.493   -22421004.075 8  21831394.966 6
  20981733.033    20981732.928   -25598277.755 8  10281539.178 8
 88  3 22  5  1 29.0800000  0  4G 6G13G11G 9
  20589488.860    20589491.457   -18650794.221 9  21685533.190 8
  22540004.114    22540005.430   -33370802.711 9  26406587.000 7
  20747930.237    20747933.100   -22420734.913 9  21831604.691 7
  20969882.142    20969882.187   -25660547.042 9  10233017.666 8
 88  3 22  5  1 59.0800000  0  4G 6G13G11G 9
  20593359.020    20593360.272   -18630454.441 9  21701382.350 8
  22523255.984    22523258.971   -33458811.398 9  26338008.781 6
  20748078.258    20748080.811   -22419956.600 8  21832211.171 7
  20958105.578    20958106.713   -25722436.469 9  10184792.111 8
 88  3 22  5  2 29.0800000  0  4G 6G13G11G 9
  20597331.714    20597333.524   -18609574.725 8  21717652.277 8
  22506580.607    22506583.068   -33546442.385 9  26269724.941 8
  20748323.955    20748325.624   -22418670.209 8  21833213.565 8
  20946401.250    20946401.325   -25783942.982 9  10136864.981 8
 88  3 22  5  2 59.0800000  0  4G 6G13G11G 9
  20601410.532    20601410.411   -18588154.298 9  21734343.483 7
  22489977.597    22489978.373   -33633694.510 9  26201736.323 7
  20748665.520    20748667.149   -22416877.228 8  21834610.703 7
  20934769.972    20934770.366   -25845064.138 9  10089238.108 7
 88  3 22  5  3 29.0800000  0  4G 6G13G11G 9
  20605589.751    20605589.124   -18566192.234 8  21751456.790 8
  22473446.791    22473446.831   -33720566.056 9  26134044.258 8
  20749101.509    20749103.579   -22414578.771 9  21836401.699 8
  20923214.457    20923214.395   -25905796.842 9  10041913.934 8
 88  3 22  5  3 59.0800000  0  4G 6G13G11G 9
  20609872.373    20609871.837   -18543687.875 9  21768992.635 8
  22456985.900    22456989.023   -33807055.212 9  26066650.140 7
  20749635.901    20749637.068   -22411776.069 8  21838585.673 7
  20911731.351    20911731.768   -25966138.297 9   9994894.619 8
 88  3 22  5  4 29.0800000  0  4G 6G13G11G 9
  20614258.444    20614258.185   -18520640.609 8  21786951.547 8
  22440600.576    22440604.151   -33893160.482 8  25999555.135 7
  20750262.811    20750264.707   -22408470.261 8  21841161.622 7
  20900324.116    20900324.415   -26026085.708 9   9948182.379 8
 88  3 22  5  4 59.0800000  0  4G 6G13G11G 9
  20618747.762    20618747.683   -18497049.888 9  21805333.915 8
  22424290.010    22424293.274   -33978880.018 9  25932760.688 8
  20750989.978    20750990.330   -22404662.716 9  21844128.560 7
  20888992.322    20888991.675   -26085636.396 9   9901779.221 7
 88  3 22  5  5 29.0800000  0  4G 6G13G11G 9
  20623339.276    20623341.973   -18472914.800 9  21824140.455 7
  22408051.163    22408055.049   -34064212.470 9  25866267.906 9
  20751808.752    20751810.373   -22400354.781 9  21847485.391 8
  20877734.846    20877736.355   -26144787.362 9   9855687.574 8
 88  3 22  5  5 59.0800000  0  4G 6G13G11G 9
  20628035.834    20628036.781   -18448234.883 9  21843371.560 8
  22391888.118    22391891.500   -34149156.176 9  25800078.012 8
  20752723.939    20752723.321   -22395547.807 9  21851231.102 7
  20866555.948    20866555.504   -26203535.776 8   9809909.631 7
 88  3 22  5  6 29.0800000  0  4G 6G13G11G 9
  20632836.070    20632836.655   -18423009.521 8  21863027.669 7
  22375798.433    22375801.850   -34233710.357 9  25734191.650 8
  20753732.705    20753735.041   -22390243.204 9  21855364.557 7
  20855454.526    20855452.809   -26261879.072 8   9764447.294 8
 88  3 22  5  6 59.0800000  0  4G 6G13G11G 9
  20637739.844    20637741.358   -18397238.141 9  21883109.235 8
  22359784.438    22359785.440   -34317873.012 9  25668610.385 8
  20754834.877    20754838.495   -22384442.250 8  21859884.783 8
  20844428.473    20844431.822   -26319814.169 9   9719303.054 8
 88  3 22  5  7 29.0800000  0  4G 6G13G11G 9
  20642750.188    20642750.767   -18370920.081 9  21903616.795 8
  22343842.109    22343844.496   -34401642.197 9  25603335.730 8
  20756034.507    20756034.468   -22378146.402 8  21864790.647 6
  20833481.242    20833484.439   -26377338.552 9   9674478.885 9
 88  3 22  5  7 59.0800000  0  4G 6G13G11G 9
  20647860.953    20647860.294   -18344054.941 8  21924550.677 8
  22327977.211    22327977.743   -34485017.084 8  25538368.355 9
  20757325.116    20757328.561   -22371357.051 8  21870081.079 7
  20822613.552    20822616.818   -26434449.325 9   9629976.982 8
 88  3 22  5  8 29.0800000  0  4G 6G13G11G 9
  20653077.436    20653079.066   -18316642.210 8  21945911.209 8
  22312186.230    22312185.804   -34567995.967 9  25473709.500 8
  20758712.961    20758711.287   -22364075.441 8  21875755.077 7
  20811824.417    20811828.668   -26491143.660 9   9585799.600 9
 88  3 22  5  8 59.0800000  0  4G 6G13G11G 9
  20658397.426    20658399.842   -18288681.372 9  21967698.872 7
  22296472.316    22296473.178   -34650577.504 9  25409360.279 8
  20760190.080    20760192.791   -22356302.980 8  21881811.559 7
  20801118.127    20801117.832   -26547418.782 9   9541948.875 8
 88  3 22  5  9 29.0800000  0  4G 6G13G11G 9
  20663823.438    20663824.924   -18260171.941 8  21989913.975 8
  22280831.657    22280834.410   -34732760.177 9  25345321.860 8
  20761763.805    20761764.851   -22348041.446 8  21888249.112 7
  20790488.317    20790489.660   -26603271.933 9   9498426.931 7
 88  3 22  5  9 59.0800000  0  4G 6G13G11G 9
  20669352.704    20669353.995   -18231113.533 8  22012556.871 8
  22265268.914    22265270.594   -34814542.317 8  25281595.553 7
  20763427.974    20763430.433   -22339291.865 8  21895066.988 7
  20779940.801    20779941.910   -26658700.472 9   9455235.865 7
 88  3 22  5 10 29.0800000  0  4G 6G13G11G 9
  20674987.205    20674987.971   -18201505.638 9  22035627.945 9
  22249782.314    22249784.282   -34895923.136 9  25218181.886 7
  20765185.323    20765187.868   -22330055.936 9  21902263.822 6
  20769473.744    20769475.352   -26713701.383 8   9412378.033 8
 88  3 22  5 10 59.0800000  0  4G 6G13G11G 9
  20680726.754    20680726.882   -18171347.963 9  22059127.410 8
  22234372.381    22234375.515   -34976900.643 8  25155082.534 8
  20767034.979    20767036.455   -22320335.554 7  21909838.155 7
  20759089.864    20759090.320   -26768272.094 9   9369855.399 7
 88  3 22  5 11 29.0800000  0  4G 6G13G11G 9
  20686569.975    20686569.104   -18140639.994 9  22083055.704 9
  22219039.645    22219042.769   -35057474.023 9  25092298.131 8
  20768977.309    20768978.358   -22310131.750 8  21917789.191 7
  20748788.733    20748789.419   -26822409.753 8   9327670.217 8
 88  3 22  5 11 59.0800000  0  4G 6G13G11G 9
  20692516.092    20692519.304   -18109381.522 9  22107412.922 8
  22203784.821    22203786.337   -35137641.828 9  25029829.748 8
  20771009.792    20771011.463   -22299446.098 8  21926115.674 7
  20738569.732    20738569.778   -26876111.612 9   9285824.615 9
 88  3 22  5 12 29.0800000  0  4G 6G13G11G 9
  20698570.936    20698570.785   -18077572.090 9  22132199.468 9
  22188603.850    22188610.284   -35217402.836 8  24967678.314 8
  20773136.503    20773136.726   -22288280.147 9  21934816.441 8
  20728433.899    20728435.025   -26929375.067 9   9244320.655 8
 88  3 22  5 12 59.0800000  0  4G 6G13G11G 9
  20704729.616    20704729.995   -18045211.577 9  22157415.441 8
  22173506.777    22173507.790   -35296756.112 8  24905844.637 8
  20775349.910    20775353.460   -22276635.395 8  21943890.286 8
  20718381.913    20718382.175   -26982197.163 9   9203160.572 7
 88  3 22  5 13 29.0800000  0  4G 6G13G11G 9
  20710991.996    20710992.250   -18012299.533 8  22183061.155 8
  22158484.223    22158485.519   -35375700.110 9  24844329.869 8
  20777657.134    20777659.763   -22264513.339 8  21953336.060 7
  20708413.464    20708416.191   -27034575.353 9   9162346.400 9
 88  3 22  5 13 59.0800000  0  4G 6G13G11G 9
  20717360.062    20717362.444   -17978835.714 9  22209136.812 7
  22143539.975    22143541.611   -35454233.163 9  24783135.297 7
  20780054.533    20780056.834   -22251915.804 8  21963152.287 7
  20698533.250    20698534.721   -27086506.939 9   9121880.237 8
 88  3 22  5 14 29.0800000  0  4G 6G13G11G 9
  20723833.230    20723835.731   -17944819.951 9  22235642.587 9
  22128671.826    22128674.567   -35532353.831 8  24722262.054 7
  20782541.553    20782544.721   -22238844.299 9  21973337.894 7
  20688736.199    20688735.430   -27137989.070 8   9081764.288 9
 88  3 22  5 14 59.0800000  0  4G 6G13G11G 9
  20730411.168    20730410.853   -17910252.002 9  22262578.651 8
  22113887.774    22113889.348   -35610061.304 9  24661710.820 7
  20785120.353    20785120.803   -22225300.398 9  21983891.589 7
  20679023.294    20679026.070   -27189019.082 8   9042000.631 9
 88  3 22  5 15 29.0800000  0  4G 6G13G11G 9
  20737093.260    20737096.488   -17875131.722 9  22289945.059 8
  22099179.817    22099179.968   -35687353.785 9  24601482.916 7
  20787786.524    20787788.935   -22211285.758 8  21994812.105 8
  20669399.776    20669402.160   -27239594.305 9   9002591.384 8
 88  3 22  5 15 59.0800000  0  4G 6G13G11G 9
  20743880.744    20743883.623   -17839458.982 8  22317742.013 9
  22084549.787    22084552.403   -35764230.711 9  24541578.816 8
  20790542.365    20790543.903   -22196802.260 9  22006097.956 8
  20659862.202    20659863.392   -27289711.926 8   8963538.691 8
 88  3 22  5 16 29.0800000  0  4G 6G13G11G 9
  20750776.619    20750776.770   -17803233.449 9  22345969.661 8
  22070000.281    22070002.136   -35840690.727 9  24481999.625 9
  20793387.568    20793389.064   -22181851.025 9  22017748.269 7
  20650414.783    20650415.214   -27339369.293 9   8924844.650 8
 88  3 22  5 16 59.0800000  0  4G 6G13G11G 9
  20757773.351    20757775.586   -17766455.280 9  22374627.971 8
  22055529.625    22055530.483   -35916732.956 9  24422745.972 8
  20796323.100    20796323.400   -22166434.386 9  22029761.251 9
  20641053.569    20641051.617   -27388564.014 8   8886511.122 7
 88  3 22  5 17 29.0800000  0  4G 6G13G11G 9
  20764878.256    20764880.937   -17729124.260 8  22403717.032 8
  22041139.459    22041139.997   -35992355.631 9  24363819.228 8
  20799342.619    20799346.340   -22150553.406 8  22042136.025 8
  20631779.722    20631780.725   -27437293.354 9   8848540.227 8
 88  3 22  5 17 59.0800000  0  4G 6G13G11G 9
  20772086.544    20772089.184   -17691240.326 9  22433236.965 7
  22026826.951    22026829.741   -36067557.829 9  24305220.150 8
  20802453.712    20802457.878   -22134209.849 8  22054871.277 7
  20622596.468    20622596.070   -27485554.396 9   8810934.209 8
 88  3 22  5 18 29.0800000  0  4G 6G13G11G 9
  20779402.609    20779402.458   -17652803.543 8  22463187.698 8
  22012597.009    22012599.238   -36142338.775 8  24246949.308 7
  20805652.978    20805655.271   -22117405.493 9  22067965.580 8
  20613500.430    20613501.218   -27533344.741 8   8773694.981 8
 88  3 22  5 18 59.0800000  0  4G 6G13G11G 9
  20786822.286    20786822.260   -17613813.800 9  22493569.291 8
  21998446.440    21998448.266   -36216696.913 9  24189007.887 7
  20808936.119    20808938.637   -22100142.324 9  22081417.395 8
  20604498.447    20604497.897   -27580661.421 9   8736824.850 8
 88  3 22  5 19 29.0800000  0  4G 6G13G11G 9
  20794346.541    20794347.025   -17574271.082 9  22524381.766 8
  21984377.983    21984379.989   -36290631.038 8  24131396.927 7
  20812309.026    20812310.668   -22082422.154 8  22095225.331 8
  20595584.781    20595584.295   -27627502.090 8   8700325.617 8
 88  3 22  5 19 59.0800000  0  4G 6G13G11G 9
  20801977.098    20801976.819   -17534175.247 8  22555625.276 8
  21970388.688    21970390.969   -36364140.334 8  24074116.989 8
  20815767.547    20815770.132   -22064246.758 8  22109388.003 8
  20586762.391    20586762.585   -27673864.264 8   8664199.248 8
 88  3 22  5 20 29.0800000  0  4G 6G13G11G 9
  20809711.659    20809712.500   -17493526.608 9  22587299.542 8
  21956481.641    21956481.422   -36437223.720 8  24017168.902 6
  20819311.931    20819314.100   -22045617.481 8  22123904.332 8
  20578029.979    20578032.632   -27719745.192 9   8628447.883 8
 88  3 22  5 20 59.0800000  0  4G 6G13G11G 9
  20817552.066    20817552.364   -17452325.219 9  22619404.504 8
  21942655.479    21942658.576   -36509880.450 9  23960553.245 7
  20822945.133    20822944.464   -22026536.518 8  22138772.609 8
  20569390.359    20569390.478   -27765142.375 7   8593073.484 7
 88  3 22  5 21 29.0800000  0  4G 6G13G11G 9
  20825497.926    20825500.432   -17410571.141 9  22651940.109 8
  21928912.230    21928914.500   -36582108.706 9  23904271.520 7
  20826657.496    20826663.191   -22007005.619 8  22153991.510 8
  20560843.771    20560846.340   -27810053.140 8   8558078.070 8
 88  3 22  5 21 59.0800000  0  4G 6G13G11G 9
  20833548.043    20833548.971   -17368264.438 8  22684906.373 8
  21915247.988    21915250.841   -36653908.387 8  23848323.781 8
  20830462.019    20830465.745   -21987026.373 8  22169559.748 8
  20552391.777    20552392.511   -27854474.861 8   8523463.727 8
 88  3 22  5 22 29.0800000  0  4G 6G13G11G 9
  20841703.332    20841706.430   -17325405.304 9  22718303.069 9
  21901668.310    21901670.079   -36725278.381 9  23792710.867 9
  20834350.813    20834350.924   -21966600.483 8  22185476.042 8
  20544030.771    20544033.067   -27898404.975 8   8489232.476 8
 88  3 22  5 22 59.0800000  0  4G 6G13G11G 9
  20849963.832    20849966.888   -17281993.914 8  22752130.070 9
  21888169.480    21888169.058   -36796217.264 9  23737433.813 7
  20838319.780    20838321.179   -21945729.920 8  22201738.815 7
  20535767.140    20535766.673   -27941840.943 9   8455386.293 8
 88  3 22  5 23 29.0800000  0  4G 6G13G11G 9
  20858328.394    20858331.927   -17238030.491 9  22786387.253 8
  21874749.910    21874753.132   -36866724.326 9  23682493.202 7
  20842376.166    20842378.040   -21924416.632 8  22218346.577 8
  20527594.675    20527594.115   -27984780.390 8   8421926.982 7
 88  3 22  5 23 59.0800000  0  4G 6G13G11G 9
  20866801.592    20866802.482   -17193515.185 8  22821074.504 8
  21861415.686    21861419.340   -36936798.812 9  23627889.745 8
  20846517.463    20846517.276   -21902662.327 8  22235298.013 7
  20519520.588    20519520.744   -28027220.746 9   8388856.577 7
 88  3 22  5 24 29.0800000  0  4G 6G13G11G 9
  20875377.604    20875379.658   -17148448.310 9  22856191.507 8
  21848163.772    21848167.569   -37006439.731 9  23573624.140 9
  20850736.489    20850740.863   -21880469.081 8  22252591.443 8
  20511539.662    20511540.496   -28069159.439 8   8356177.088 8
 88  3 22  5 24 59.0800000  0  4G 6G13G11G 9
  20884058.910    20884059.793   -17102830.243 9  22891738.054 8
  21834993.838    21834996.531   -37075646.131 9  23519697.120 8
  20855046.168    20855046.604   -21857838.830 9  22270225.399 7
  20503654.439    20503657.365   -28110594.000 9   8323890.428 7
 88  3 22  5 25 29.0800000  0  4G 6G13G11G 9
  20892844.152    20892845.037   -17056661.229 9  22927713.867 8
  21821906.986    21821908.927   -37144417.306 8  23466109.190 7
  20859433.711    20859437.382   -21834773.364 8  22288198.519 7
  20495866.992    20495866.821   -28151521.953 7   8291998.531 7
 88  3 22  5 25 59.0800000  0  4G 6G13G11G 9
  20901735.053    20901734.946   -17009941.466 9  22964118.875 8
  21808903.093    21808906.026   -37212752.028 8  23412861.384 7
  20863906.789    20863908.705   -21811274.519 8  22306509.282 8
  20488174.043    20488175.443   -28191940.741 9   8260503.357 8
 88  3 22  5 26 29.0800000  0  4G 6G13G11G 9
  20910729.896    20910730.304   -16962671.427 9  23000952.644 8
  21795983.272    21795985.273   -37280649.386 9  23359954.365 8
  20868461.223    20868461.415   -21787344.239 9  22325156.280 8
  20480578.690    20480580.933   -28231848.165 7   8229406.641 8
 88  3 22  5 26 59.0800000  0  4G 6G13G11G 9
  20919830.723    20919831.561   -16914851.412 9  23038214.986 8
  21783145.915    21783148.519   -37348108.914 9  23307388.508 8
  20873097.279    20873098.078   -21762984.335 9  22344138.034 8
  20473082.786    20473084.474   -28271241.533 8   8198710.510 6
 88  3 22  5 27 29.0800000  0  4G 6G13G11G 9
  20929034.380    20929034.440   -16866481.994 9  23075905.416 8
  21770392.261    21770395.206   -37415129.739 8  23255164.526 8
  20877814.230    20877814.416   -21738197.028 8  22363452.833 8
  20465687.193    20465686.262   -28310118.474 9   8168416.787 7
 88  3 22  5 27 59.0800000  0  4G 6G13G11G 9
  20938343.411    20938345.765   -16817563.351 9  23114023.822 8
  21757723.015    21757726.128   -37481711.399 9  23203282.745 8
  20882610.238    20882611.303   -21712984.104 8  22383099.273 7
  20458388.125    20458388.189   -28348476.622 8   8138527.344 7
 88  3 22  5 28 29.0800000  0  4G 6G13G11G 9
  20947756.717    20947757.492   -16768096.034 9  23152569.746 9
  21745136.420    21745139.213   -37547852.580 9  23151744.176 8
  20887488.669    20887491.487   -21687347.466 9  22403075.896 9
  20451189.076    20451185.243   -28386313.494 9   8109044.087 6
 88  3 22  5 28 59.0800000  0  4G 6G13G11G 9
  20957273.288    20957275.460   -16718080.488 9  23191542.849 8
  21732633.266    21732636.592   -37613552.301 9  23100549.602 8
  20892445.378    20892450.208   -21661288.836 8  22423381.317 8
  20444087.588    20444085.550   -28423626.857 8   8079968.711 7
 88  3 22  5 29 29.0800000  0  4G 6G13G11G 9
  20966895.341    20966897.237   -16667517.190 9  23230942.783 7
  21720215.406    21720217.942   -37678810.547 8  23049699.068 8
  20897484.522    20897487.843   -21634810.385 8  22444013.864 9
  20437085.751    20437084.556   -28460414.435 8   8051303.075 7
 88  3 22  5 29 59.0800000  0  4G 6G13G11G 9
  20976622.190    20976624.062   -16616406.648 8  23270769.168 8
  21707879.766    21707882.738   -37743626.294 9  22999193.290 6
  20902604.869    20902607.587   -21607914.386 8  22464971.790 8
  20430187.403    20430187.185   -28496673.565 8   8023049.218 7
 88  3 22  5 30 29.0800000  0  4G 6G13G11G 9
  20986451.001    20986453.790   -16564749.389 9  23311021.548 7
  21695630.912    21695633.931   -37807998.888 9  22949032.803 6
  20907799.826    20907804.115   -21580602.621 8  22486253.705 8
  20423386.955    20423387.215   -28532402.079 8   7995208.826 7
 88  3 22  5 30 59.0800000  0  4G 6G13G11G 9
  20996385.769    20996386.275   -16512546.213 8  23351699.351 8
  21683465.627    21683468.497   -37871927.399 9  22899218.397 7
  20913077.964    20913083.243   -21552877.129 9  22507857.948 8
  20416690.123    20416691.129   -28567597.628 8   7967783.701 7
 88  3 22  5 31 29.0800000  0  4G 6G13G11G 9
  21006423.097    21006423.297   -16459797.384 9  23392802.330 8
  21671386.311    21671389.782   -37935411.666 9  22849750.166 8
  20918431.497    20918433.628   -21524739.941 8  22529783.062 8
  20410093.532    20410095.302   -28602257.901 9   7940775.708 8
 88  3 22  5 31 59.0800000  0  4G 6G13G11G 9
  21016564.966    21016566.853   -16406503.601 9  23434329.955 7
  21659389.641    21659392.641   -37998450.597 9  22800628.978 8
  20923862.865    20923866.276   -21496193.096 9  22552027.365 7
  20403600.920    20403599.297   -28636380.559 8   7914186.614 7
 88  3 22  5 32 29.0800000  0  4G 6G13G11G 9
  21026811.200    21026810.984   -16352665.486 9  23476281.716 8
  21647479.546    21647481.286   -38061043.768 9  22751855.089 8
  20929373.871    20929375.731   -21467238.653 9  22574589.244 8
  20397211.463    20397210.097   -28669963.360 9   7888018.181 7
 88  3 22  5 32 59.0800000  0  4G 6G13G11G 9
  21037159.378    21037159.840   -16298283.727 9  23518657.092 8
  21635653.717    21635655.826   -38123190.597 9  22703429.022 7
  20934961.353    20934963.262   -21437878.563 8  22597467.288 7
  20390921.452    20390923.267   -28703004.040 8   7862272.183 8
 88  3 22  5 33 29.0800000  0  4G 6G13G11G 9
  21047610.731    21047611.826   -16243358.896 9  23561455.625 8
  21623913.546    21623913.468   -38184890.649 9  22655351.066 7
  20940623.948    20940626.539   -21408114.798 9  22620659.835 7
  20384738.902    20384739.313   -28735500.302 8   7836950.427 8
 88  3 22  5 33 59.0800000  0  4G 6G13G11G 9
  21058165.701    21058167.076   -16187891.947 9  23604676.589 8
  21612256.108    21612257.819   -38246143.116 9  22607621.852 7
  20946364.764    20946366.812   -21377949.438 9  22644165.319 7
  20378659.687    20378658.169   -28767450.110 8   7812054.475 8
 88  3 22  5 34 29.0800000  0  4G 6G13G11G 9
  21068824.006    21068824.496   -16131883.494 8  23648319.535 9
  21600684.640    21600688.386   -38306947.623 9  22560241.717 7
  20952181.696    20952183.206   -21347384.950 9  22667981.823 8
  20372684.111    20372685.070   -28798851.102 8   7787586.165 7
 88  3 22  5 34 59.0800000  0  4G 6G13G11G 9
  21079584.624    21079586.897   -16075334.247 9  23692383.847 8
  21589199.873    21589203.022   -38367303.230 9  22513211.426 8
  20958072.885    20958075.984   -21316423.046 8  22692107.986 9
  20366811.893    20366813.568   -28829701.102 8   7763547.226 7
 88  3 22  5 35 29.0800000  0  4G 6G13G11G 9
  21090448.633    21090449.576   -16018244.946 9  23736869.016 8
  21577800.270    21577802.872   -38427209.594 9  22466531.162 8
  20964041.265    20964042.515   -21285065.892 9  22716542.103 7
  20361048.598    20361048.163   -28859997.916 7   7739939.305 7
 88  3 22  5 35 59.0800000  0  4G 6G13G11G 9
  21101417.640    21101416.999   -15960616.428 9  23781774.345 8
  21566487.240    21566488.760   -38486666.361 9  22420201.177 7
  20970080.804    20970083.871   -21253315.665 8  22741282.568 9
  20355388.652    20355387.527   -28889739.793 7   7716763.846 7
 88  3 22  5 36 29.0800000  0  4G 6G13G11G 9
  21112482.881    21112485.311   -15902449.584 9  23827099.145 8
  21555256.490    21555259.501   -38545673.396 9  22374221.701 8
  20976198.840    20976200.309   -21221174.251 9  22766327.820 8
  20349835.109    20349834.475   -28918923.866 8   7694022.981 7
 88  3 22  5 36 59.0800000  0  4G 6G13G11G 9
  21123655.156    21123656.668   -15843745.223 8  23872842.767 9
  21544113.408    21544116.915   -38604230.013 9  22328593.212 7
  20982389.107    20982388.960   -21188643.872 9  22791676.190 8
  20344385.221    20344387.280   -28947548.579 7   7671718.022 8
 88  3 22  5 37 29.0800000  0  4G 6G13G11G 9
  21134927.852    21134931.356   -15784504.161 9  23919004.603 8
  21533057.125    21533058.223   -38662335.445 9  22283316.260 7
  20988651.389    20988652.237   -21155726.711 9  22817325.935 7
  20339048.064    20339049.832   -28975611.562 7   7649850.751 8
 88  3 22  5 37 59.0800000  0  4G 6G13G11G 9
  21146303.309    21146304.295   -15724727.383 8  23965583.940 7
  21522086.375    21522088.480   -38719989.568 9  22238390.998 7
  20994989.696    20994990.096   -21122424.606 8  22843275.647 8
  20333814.220    20333815.989   -29003110.834 9   7628422.739 8
 88  3 22  5 38 29.0800000  0  4G 6G13G11G 9
  21157778.571    21157781.508   -15664415.697 7  24012580.045 7
  21511202.444    21511201.360   -38777191.841 9  22193817.851 6
  21001400.076    21001402.196   -21088739.503 8  22869523.779 8
  20328686.617    20328690.761   -29030044.238 7   7607435.686 7
 88  3 22  5 38 59.0800000  0  4G 6G13G11G 9
  21169358.159    21169360.507   -15603570.052 8  24059992.197 8
  21500401.602    21500403.497   -38833942.379 9  22149596.635 7
  21007883.158    21007884.181   -21054674.272 8  22896068.131 8
  20323671.771    20323673.796   -29056409.978 8   7586890.951 8
 88  3 22  5 39 29.0800000  0  4G 6G13G11G 9
  21181037.808    21181038.381   -15542191.430 9  24107819.677 7
  21489689.445    21489691.484   -38890240.430 8  22105728.047 7
  21014436.432    21014438.969   -21020230.650 9  22922907.323 7
  20318762.631    20318764.957   -29082205.751 8   7566790.359 8
 88  3 22  5 39 59.0800000  0  4G 6G13G11G 9
  21192821.009    21192822.942   -15480280.871 9  24156061.631 7
  21479062.644    21479063.381   -38946085.262 9  22062212.620 7
  21021063.659    21021064.513   -20985410.932 8  22950039.586 7
  20313963.395    20313965.212   -29107429.757 7   7547135.281 8
 88  3 22  5 40 29.0800000  0  4G 6G13G11G 9
  21204701.668    21204702.312   -15417839.364 8  24204717.308 7
  21468520.179    21468522.248   -39001476.658 9  22019050.495 8
  21027760.658    21027761.836   -20950217.363 8  22977463.153 8
  20309270.430    20309273.385   -29132080.055 7   7527927.246 8
 88  3 22  5 40 59.0800000  0  4G 6G13G11G 9
  21216683.675    21216686.770   -15354868.092 9  24253785.812 7
  21458065.553    21458068.757   -39056414.984 8  21976241.432 8
  21034528.643    21034531.184   -20914651.774 8  23005176.607 9
  20304691.126    20304692.102   -29156154.662 7   7509167.816 8
 88  3 22  5 41 29.0800000  0  4G 6G13G11G 9
  21228769.642    21228771.541   -15291367.818 9  24303266.498 8
  21447697.270    21447700.610   -39110899.662 9  21933785.863 8
  21041365.344    21041369.486   -20878716.432 9  23033178.174 9
  20300219.801    20300220.692   -29179651.468 8   7490858.621 7
 88  3 22  5 41 59.0800000  0  4G 6G13G11G 9
  21240952.396    21240955.508   -15227339.707 9  24353158.521 8
  21437416.781    21437418.918   -39164930.213 9  21891684.151 8
  21048274.428    21048276.453   -20842413.742 9  23061465.981 9
  20295858.264    20295859.507   -29202568.590 9   7473001.147 7
 88  3 22  5 42 29.0800000  0  4G 6G13G11G 9
  21253237.644    21253239.423   -15162784.928 9  24403460.911 8
  21427220.746    21427224.608   -39218506.420 8  21849936.462 8
  21055251.671    21055255.221   -20805745.652 8  23090038.498 9
  20291608.835    20291608.071   -29224904.130 8   7455596.841 7
 88  3 22  5 42 59.0800000  0  4G 6G13G11G 9
  21265622.255    21265624.749   -15097704.594 9  24454172.843 8
  21417113.164    21417116.521   -39271628.090 9  21808543.017 8
  21062299.112    21062301.078   -20768714.339 9  23118894.080 8
  20287468.853    20287468.970   -29246656.453 8   7438646.957 7
 88  3 22  5 43 29.0800000  0  4G 6G13G11G 9
  21278106.619    21278107.233   -15032099.921 9  24505293.348 9
  21407090.389    21407093.339   -39324295.280 9  21767503.643 8
  21069414.969    21069416.095   -20731322.127 9  23148030.880 8
  20283442.171    20283440.939   -29267823.529 8   7422153.135 7
 88  3 22  5 43 59.0800000  0  4G 6G13G11G 9
  21290689.212    21290692.742   -14965971.958 9  24556821.604 9
  21397155.017    21397157.513   -39376507.419 9  21726818.867 7
  21076597.463    21076599.916   -20693571.218 9  23177447.171 7
  20279524.877    20279526.183   -29288403.420 7   7406116.853 7
 88  3 22  5 44 29.0800000  0  4G 6G13G11G 9
  21303373.143    21303374.654   -14899321.826 9  24608756.773 8
  21387306.370    21387306.958   -39428264.487 9  21686488.729 8
  21083849.833    21083852.163   -20655463.632 9  23207141.388 8
  20275721.714    20275722.647   -29308394.429 8   7390539.437 8
 88  3 22  5 44 59.0800000  0  4G 6G13G11G 9
  21316156.093    21316156.875   -14832150.880 9  24661097.763 9
  21377544.401    21377543.436   -39479566.427 9  21646513.206 7
  21091169.177    21091168.912   -20617001.656 8  23237111.782 8
  20272028.493    20272029.183   -29327794.736 8   7375422.303 7
 88  3 22  5 45 29.0800000  0  4G 6G13G11G 9
  21329035.665    21329038.179   -14764460.197 9  24713843.738 8
  21367866.088    21367869.923   -39530412.660 9  21606892.791 8
  21098556.014    21098557.837   -20578187.229 9  23267356.768 9
  20268450.165    20268450.116   -29346602.696 8   7360766.760 7
 88  3 22  5 45 59.0800000  0  4G 6G13G11G 9
  21342017.072    21342017.566   -14696251.118 9  24766993.633 8
  21358278.830    21358280.568   -39580803.373 8  21567627.340 7
  21106007.456    21106007.312   -20539022.597 8  23297874.685 7
  20264982.705    20264985.347   -29364816.246 7   7346574.378 7
 88  3 22  5 46 29.0800000  0  4G 6G13G11G 9
  21355094.901    21355095.317   -14627525.048 9  24820546.403 7
  21348775.045    21348778.246   -39630738.385 9  21528716.949 7
  21113527.053    21113528.269   -20499510.065 9  23328663.679 9
  20261631.503    20261632.876   -29382433.887 7   7332846.355 7
 88  3 22  5 46 59.0800000  0  4G 6G13G11G 9
  21368270.605    21368273.622   -14558282.999 9  24874501.189 7
  21339360.796    21339363.841   -39680218.155 9  21490161.291 8
  21121112.211    21121113.427   -20459652.148 8  23359721.808 8
  20258392.055    20258393.237   -29399453.925 7   7319583.990 6
 88  3 22  5 47 29.0800000  0  4G 6G13G11G 9
  21381545.751    21381546.029   -14488526.874 9  24928856.589 7
  21330029.873    21330032.662   -39729242.344 9  21451960.639 8
  21128758.656    21128763.932   -20419450.839 8  23391047.462 8
  20255268.083    20255270.414   -29415874.720 7   7306788.531 8
 88  3 22  5 47 59.0800000  0  4G 6G13G11G 9
  21394915.207    21394917.176   -14418257.178 9  24983612.175 8
  21320787.207    21320790.548   -39777810.783 9  21414115.101 8
  21136476.090    21136478.338   -20378908.701 8  23422638.754 8
  20252257.639    20252259.242   -29431694.572 8   7294461.384 8
 88  3 22  5 48 29.0800000  0  4G 6G13G11G 9
  21408385.256    21408387.080   -14347475.943 9  25038766.383 7
  21311633.394    21311635.185   -39825923.032 9  21376625.053 8
  21144255.982    21144257.102   -20338027.559 9  23454494.189 8
  20249361.822    20249363.028   -29446911.597 7   7282603.958 8
 88  3 22  5 48 59.0800000  0  4G 6G13G11G 9
  21421953.478    21421954.045   -14276183.919 9  25094318.537 7
  21302563.849    21302565.657   -39873579.695 8  21339490.013 7
  21152099.503    21152100.438   -20296809.661 8  23486612.038 9
  20246580.088    20246582.881   -29461524.495 8   7271217.274 7
 88  3 22  5 49 29.0800000  0  4G 6G13G11G 9
  21435616.438    21435617.498   -14204383.154 9  25150267.187 8
  21293581.954    21293583.990   -39920780.479 9  21302710.225 8
  21160004.700    21160008.987   -20255257.481 8  23518990.366 8
  20243914.753    20243914.103   -29475531.593 9   7260302.637 7
 88  3 22  5 49 59.0800000  0  4G 6G13G11G 9
  21449376.025    21449376.586   -14132074.634 8  25206611.472 7
  21284687.122    21284689.473   -39967525.636 9  21266285.420 7
  21167973.825    21167979.328   -20213373.077 8  23551627.539 8
  20241365.933    20241365.833   -29488931.327 8   7249861.312 7
 88  3 22  5 50 29.0800000  0  4G 6G13G11G 9
  21463231.695    21463234.049   -14059259.981 9  25263350.128 8
  21275878.322    21275880.065   -40013814.952 9  21230215.869 8
  21176008.387    21176010.471   -20171158.599 8  23584521.939 8
  20238931.139    20238931.458   -29501722.251 8   7239894.333 7
 88  3 22  5 50 59.0800000  0  4G 6G13G11G 9
  21477184.686    21477186.049   -13985940.801 9  25320481.939 7
  21267156.818    21267159.015   -40059648.951 9  21194501.083 8
  21184104.783    21184108.393   -20128616.186 8  23617671.884 9
  20236613.700    20236614.009   -29513902.693 8   7230403.084 8
 88  3 22  5 51 29.0800000  0  4G 6G13G11G 9
  21491231.693    21491232.969   -13912118.300 9  25378005.970 8
  21258522.079    21258521.506   -40105027.116 9  21159141.475 8
  21192262.407    21192265.148   -20085748.552 8  23651075.232 8
  20234412.938    20234411.968   -29525471.363 8   7221388.524 9
 88  3 22  5 51 59.0800000  0  4G 6G13G11G 9
  21505376.317    21505375.831   -13837794.285 9  25435920.778 8
  21249972.647    21249974.687   -40149950.114 9  21124136.535 7
  21200482.307    21200483.927   -20042557.724 8  23684730.420 8
  20232327.392    20232328.869   -29536426.733 8   7212851.852 7
 88  3 22  5 52 29.0800000  0  4G 6G13G11G 9
  21519613.579    21519616.840   -13762969.827 9  25494225.539 8
  21241512.619    21241512.561   -40194417.917 9  21089486.357 8
  21208758.822    21208762.435   -19999045.713 8  23718635.887 9
  20230360.556    20230359.511   -29546767.185 8   7204794.371 7
 88  3 22  5 52 59.0800000  0  4G 6G13G11G 9
  21533947.887    21533949.067   -13687646.938 9  25552918.672 7
  21233137.056    21233138.016   -40238430.514 9  21055190.838 8
  21217102.384    21217104.775   -19955214.974 8  23752789.698 9
  20228507.497    20228509.340   -29556491.347 7   7197217.067 7
 88  3 22  5 53 29.0800000  0  4G 6G13G11G 9
  21548376.469    21548377.709   -13611826.987 9  25611999.152 8
  21224847.281    21224849.950   -40281988.065 8  21021249.904 7
  21225503.917    21225504.995   -19911067.677 9  23787190.194 9
  20226777.392    20226776.214   -29565598.102 8   7190120.927 7
 88  3 22  5 53 59.0800000  0  4G 6G13G11G 9
  21562896.910    21562898.142   -13535511.626 9  25671465.639 8
  21216646.207    21216647.225   -40325090.789 9  20987663.396 8
  21233964.422    21233965.820   -19866606.121 9  23821835.572 8
  20225161.065    20225162.771   -29574085.936 8   7183506.990 7
 88  3 22  5 54 29.0800000  0  4G 6G13G11G 9
  21577514.648    21577514.566   -13458702.536 9  25731316.839 7
  21208530.172    21208530.487   -40367738.726 9  20954431.239 7
  21242485.130    21242485.945   -19821832.711 9  23856723.954 9
  20223662.875    20223664.134   -29581953.589 8   7177376.357 7
 88  3 22  5 54 59.0800000  0  4G 6G13G11G 9
  21592225.178    21592224.435   -13381401.220 9  25791551.589 8
  21200499.485    21200502.234   -40409932.260 8  20921553.169 7
  21251062.143    21251065.482   -19776749.611 8  23891853.647 8
  20222285.673    20222284.791   -29589199.580 9   7171730.139 7
 88  3 22  5 55 29.0800000  0  4G 6G13G11G 9
  21607026.772    21607028.954   -13303609.367 9  25852168.609 7
  21192557.924    21192560.535   -40451671.708 9  20889028.937 7
  21259700.652    21259703.919   -19731358.980 8  23927222.949 9
  20221024.824    20221024.351   -29595822.734 7   7166569.212 7
 88  3 22  5 55 59.0800000  0  4G 6G13G11G 9
  21621922.183    21621925.538   -13225328.768 8  25913166.461 8
  21184701.776    21184703.017   -40492957.510 9  20856858.220 7
  21268396.840    21268398.271   -19685663.008 8  23962830.216 8
  20219883.343    20219883.552   -29601821.866 7   7161894.568 6
 88  3 22  5 56 29.0800000  0  4G 6G13G11G 9
  21636913.385    21636914.845   -13146560.999 9  25974543.907 7
  21176930.634    21176933.355   -40533789.317 9  20825041.214 7
  21277147.741    21277152.010   -19639664.109 9  23998673.501 8
  20218861.371    20218860.728   -29607195.577 8   7157707.281 7
 88  3 22  5 56 59.0800000  0  4G 6G13G11G 9
  21651994.598    21651994.905   -13067307.701 9  26036299.724 8
  21169247.159    21169249.367   -40574167.482 9  20793577.746 8
  21285960.296    21285961.673   -19593364.564 9  24034751.076 8
  20217956.935    20217956.310   -29611942.591 8   7154008.306 6
 88  3 22  5 57 29.0800000  0  4G 6G13G11G 9
  21667167.361    21667168.804   -12987570.634 9  26098432.466 7
  21161650.142    21161649.586   -40614092.708 9  20762467.211 7
  21294827.401    21294829.336   -19546766.718 9  24071061.080 8
  20217174.062    20217173.668   -29616062.022 8   7150798.362 7
 88  3 22  5 57 59.0800000  0  4G 6G13G11G 9
  21682432.075    21682432.969   -12907351.668 9  26160940.722 7
  21154138.142    21154140.485   -40653565.417 9  20731709.237 7
  21303752.297    21303752.548   -19499872.813 9  24107601.804 8
  20216508.838    20216509.136   -29619552.545 7   7148078.463 7
 88  3 22  5 58 29.0800000  0  4G 6G13G11G 9
  21697788.734    21697789.348   -12826652.521 9  26223823.151 8
  21146714.962    21146713.692   -40692585.720 9  20701303.846 7
  21312730.667    21312731.464   -19452684.791 9  24144371.710 8
  20215965.900    20215964.630   -29622413.161 6   7145849.427 6
 88  3 22  5 58 59.0800000  0  4G 6G13G11G 9
  21713236.577    21713239.811   -12745474.911 9  26287078.363 8
  21139372.737    21139375.225   -40731153.968 9  20671250.671 7
  21321765.579    21321768.288   -19405205.091 9  24181368.878 9
  20215539.649    20215541.402   -29624642.499 6   7144112.240 7
 88  3 22  5 59 29.0800000  0  4G 6G13G11G 9
  21728773.932    21728776.522   -12663820.682 9  26350705.041 8
  21132120.486    21132122.401   -40769270.562 9  20641549.451 7
  21330856.552    21330857.152   -19357436.467 9  24218591.183 9
  20215236.190    20215236.108   -29626239.781 8   7142867.600 7
 88  3 22  5 59 59.0800000  0  4G 6G13G11G 9
  21744403.204    21744404.344   -12581691.580 9  26414701.740 8
  21124952.261    21124954.706   -40806935.730 9  20612199.955 8
  21339999.775    21340001.694   -19309380.511 8  24256037.382 7
  20215053.663    20215053.810   -29627203.810 8   7142116.393 7
 88  3 22  6  0 29.0800000  0  4G 6G13G11G 9
  21760122.572    21760124.056   -12499089.519 8  26479066.938 7
  21117870.453    21117874.104   -40844149.872 9  20583201.935 7
  21349199.574    21349200.852   -19261039.509 9  24293705.704 9
  20214989.616    20214992.361   -29627533.478 7   7141859.471 6
 88  3 22  6  0 59.0800000  0  4G 6G13G11G 9
  21775930.057    21775933.191   -12416016.288 9  26543799.289 7
  21110874.112    21110877.056   -40880913.523 8  20554554.959 8
  21358453.745    21358454.525   -19212415.818 9  24331594.262 8
  20215050.554    20215048.835   -29627228.126 7   7142097.399 6
 88  3 22  6  1 29.0800000  0  4G 6G13G11G 9
  21791828.965    21791829.376   -12332474.068 9  26608897.103 8
  21103963.965    21103969.325   -40917227.459 9  20526258.399 8
  21367757.967    21367758.021   -19163511.850 9  24369701.300 8
  20215226.387    20215227.540   -29626286.506 7   7142831.149 6
 88  3 22  6  1 59.0800000  0  4G 6G13G11G 9
  21807814.685    21807818.152   -12248464.386 9  26674359.140 8
  21097140.651    21097141.861   -40953091.667 9  20498312.290 7
  21377116.860    21377118.154   -19114329.846 9  24408024.916 8
  20215530.239    20215529.183   -29624707.849 7   7144061.310 6
 88  3 22  6  2 29.0800000  0  4G 6G13G11G 9
  21823889.769    21823892.492   -12163989.268 9  26740183.887 8
  21090401.796    21090402.116   -40988506.551 8  20470716.297 8
  21386529.619    21386529.654   -19064871.940 9  24446563.574 8
  20215947.981    20215950.928   -29622491.095 7   7145788.605 7
 88  3 22  6  2 59.0800000  0  4G 6G13G11G 9
  21840053.455    21840055.484   -12079050.747 9  26806369.744 8
  21083748.052    21083750.634   -41023472.893 9  20443469.767 7
  21395992.641    21395994.279   -19015140.334 8  24485315.449 8
  20216491.885    20216493.452   -29619635.402 7   7148013.837 7
 88  3 22  6  3 29.0800000  0  4G 6G13G11G 9
  21856304.479    21856306.688   -11993650.759 9  26872915.179 8
  21077179.298    21077181.294   -41057990.840 8  20416572.725 7
  21405508.114    21405508.291   -18965137.507 9  24524278.688 8
  20217157.691    20217159.699   -29616140.074 6   7150737.447 6
 88  3 22  6  3 59.0800000  0  4G 6G13G11G 9
  21872642.439    21872646.589   -11907791.141 9  26939818.715 8
  21070696.472    21070697.501   -41092061.499 9  20390024.199 8
  21415074.337    21415075.648   -18914865.452 8  24563451.718 8
  20217946.492    20217944.955   -29612004.221 7   7153960.189 7
 88  3 22  6  4 29.0800000  0  4G 6G13G11G 9
  21889068.985    21889069.175   -11821473.959 9  27007078.865 8
  21064298.837    21064298.590   -41125685.563 9  20363823.646 8
  21424690.158    21424693.318   -18864326.518 8  24602832.704 8
  20218854.716    20218856.083   -29607227.023 7   7157682.668 6
 88  3 22  6  4 59.0800000  0  4G 6G13G11G 9
  21905580.464    21905582.111   -11734701.198 9  27074693.971 7
  21057983.118    21057985.634   -41158863.012 9  20337971.091 9
  21434361.193    21434363.320   -18813523.134 9  24642419.716 9
  20219884.559    20219885.063   -29601807.676 7   7161905.535 7
 88  3 22  6  5 29.0800000  0  4G 6G13G11G 9
  21922178.561    21922182.433   -11647474.881 9  27142662.472 8
  21051755.405    21051756.176   -41191594.460 9  20312466.073 7
  21444077.160    21444080.045   -18762457.454 9  24682211.126 8
  20221037.690    20221042.039   -29595745.400 7   7166629.343 7
 88  3 22  6  5 59.0800000  0  4G 6G13G11G 9
  21938863.673    21938866.902   -11559797.081 9  27210982.814 8
  21045609.961    21045611.936   -41223880.870 8  20287307.828 8
  21453843.873    21453842.325   -18711131.403 9  24722205.514 8
  20222312.707    20222316.130   -29589039.628 7   7171854.629 7
 88  3 22  6  6 29.0800000  0  4G 6G13G11G 9
  21955634.624    21955634.732   -11471669.890 9  27279653.343 8
  21039550.908    21039554.596   -41255722.600 9  20262496.119 8
  21463658.767    21463660.922   -18659547.572 9  24762400.722 9
  20223711.746    20223715.403   -29581689.594 7   7177581.905 7
 88  3 22  6  6 59.0800000  0  4G 6G13G11G 9
  21972487.418    21972492.496   -11383095.283 9  27348672.499 8
  21033577.066    21033578.478   -41287120.350 9  20238030.356 8
  21473522.999    21473527.602   -18607708.191 8  24802795.047 7
  20225233.700    20225235.560   -29573694.624 7   7183811.742 6
 88  3 22  6  7 29.0800000  0  4G 6G13G11G 9
  21989428.316    21989430.194   -11294075.473 9  27418038.565 7
  21027686.934    21027687.723   -41318074.729 9  20213910.097 8
  21483437.578    21483438.548   -18555615.496 8  24843386.749 8
  20226880.060    20226880.917   -29565054.381 7   7190544.423 6
 88  3 22  6  7 59.0800000  0  4G 6G13G11G 9
  22006454.188    22006455.277   -11204612.459 9  27487750.018 8
  21021878.910    21021881.665   -41348586.366 8  20190134.803 8
  21493397.996    21493398.695   -18503271.642 9  24884174.163 8
  20228645.720    20228648.255   -29555767.947 7   7197780.610 7
 88  3 22  6  8 29.0800000  0  4G 6G13G11G 9
  22023561.188    22023562.815   -11114708.308 9  27557805.129 7
  21016155.376    21016158.273   -41378656.171 9  20166703.805 8
  21503406.055    21503407.831   -18450678.778 9  24925155.596 9
  20230538.322    20230537.517   -29545834.930 8   7205520.619 7
 88  3 22  6  8 59.0800000  0  4G 6G13G11G 9
  22040754.037    22040755.409   -11024365.286 9  27628202.266 8
  21010520.250    21010520.485   -41408284.499 8  20143616.813 7
  21513463.516    21513462.443   -18397839.579 9  24966329.031 8
  20232551.472    20232551.544   -29535254.683 7   7213764.995 7
 88  3 22  6  9 29.0800000  0  4G 6G13G11G 9
  22058029.358    22058030.879   -10933585.463 8  27698939.761 8
  21004963.760    21004967.904   -41437472.410 9  20120872.951 8
  21523563.084    21523563.168   -18344756.129 9  25007692.734 9
  20234687.816    20234687.405   -29524026.780 7   7222513.995 7
 88  3 22  6  9 59.0800000  0  4G 6G13G11G 9
  22075384.846    22075388.100   -10842370.923 9  27770016.009 8
  20999496.471    20999497.397   -41466220.258 9  20098472.054 8
  21533709.420    21533712.735   -18291430.209 8  25049245.375 8
  20236947.641    20236948.278   -29512150.648 7   7231768.116 6
 88  3 22  6 10 29.0800000  0  4G 6G13G11G 9
  22092825.535    22092827.530   -10750724.026 9  27841429.155 8
  20994108.073    20994112.160   -41494529.025 8  20076413.279 8
  21543904.272    21543906.489   -18237864.273 9  25090985.067 8
  20239331.858    20239331.575   -29499625.908 8   7241527.651 6
 88  3 22  6 10 59.0800000  0  4G 6G13G11G 9
  22110347.450    22110348.904   -10658646.820 9  27913177.586 8
  20988803.904    20988807.214   -41522399.653 9  20054695.968 8
  21554141.170    21554144.065   -18184060.577 9  25132910.046 8
  20241837.225    20241838.730   -29486452.092 7   7251792.938 6
 88  3 22  6 11 29.0800000  0  4G 6G13G11G 9
  22127950.417    22127953.109   -10566141.658 9  27985259.495 7
  20983585.018    20983585.425   -41549832.729 8  20033319.594 7
  21564425.985    21564426.372   -18130021.285 9  25175018.577 8
  20244468.487    20244468.100   -29472628.846 8   7262564.281 6
 88  3 22  6 11 59.0800000  0  4G 6G13G11G 9
  22145634.833    22145635.280   -10473210.798 8  28057673.171 7
  20978446.943    20978449.234   -41576828.770 9  20012283.686 7
  21574754.568    21574757.064   -18075748.409 9  25217309.137 7
  20247221.520    20247223.201   -29458155.807 7   7273841.950 6
 88  3 22  6 12 29.0800000  0  4G 6G13G11G 9
  22163398.310    22163401.925   -10379856.296 9  28130416.915 7
  20973394.337    20973394.744   -41603388.878 9  19991587.524 7
  21585125.431    21585126.971   -18021244.427 9  25259779.777 8
  20250099.367    20250098.831   -29443032.693 7   7285626.249 6
 88  3 22  6 12 59.0800000  0  4G 6G13G11G 9
  22181244.110    22181247.076   -10286080.607 8  28203488.844 7
  20968422.484    20968421.766   -41629514.088 9  19971230.227 7
  21595540.343    21595540.402   -17966511.549 9  25302428.786 7
  20253100.709    20253103.265   -29427259.410 6   7297917.101 7
 88  3 22  6 13 29.0800000  0  4G 6G13G11G 9
  22199168.536    22199172.601   -10191885.862 8  28276887.320 8
  20963532.219    20963535.947   -41655204.556 8  19951211.716 6
  21605997.808    21606000.880   -17911552.001 9  25345254.404 8
  20256224.455    20256227.277   -29410835.463 7   7310714.951 6
 88  3 22  6 13 59.0800000  0  4G 6G13G11G 9
  22217171.903    22217175.974   -10097274.430 8  28350610.485 8
  20958727.483    20958728.927   -41680461.427 9  19931531.081 8
  21616499.639    21616498.960   -17856367.752 9  25388255.122 7
  20259475.238    20259477.516   -29393760.645 6   7324020.000 7
 88  3 22  6 14 29.0800000  0  4G 6G13G11G 9
  22235256.055    22235258.299   -10002248.688 9  28424656.533 7
  20954001.792    20954002.751   -41705285.891 9  19912187.356 7
  21627042.860    21627043.689   -17800961.248 8  25431429.044 8
  20262848.735    20262849.463   -29376034.779 7   7337832.383 6
 88  3 22  6 14 59.0800000  0  4G 6G13G11G 9
  22253417.568    22253418.352    -9906810.888 9  28499023.678 8
  20949361.638    20949361.103   -41729678.466 9  19893180.145 6
  21637627.710    21637629.299   -17745334.604 7  25474774.468 8
  20266346.485    20266348.343   -29357657.677 8   7352152.174 6
 88  3 22  6 15 29.0800000  0  4G 6G13G11G 9
  22271655.371    22271657.241    -9810963.049 9  28573710.269 8
  20944799.342    20944802.062   -41753640.135 9  19874508.736 8
  21648254.356    21648257.449   -17689489.908 9  25518289.813 8
  20269968.791    20269965.760   -29338629.036 7   7366979.674 6
 88  3 22  6 15 59.0800000  0  4G 6G13G11G 9
  22289973.643    22289971.667    -9714707.968 9  28648714.198 7
  20940324.613    20940324.315   -41777171.767 8  19856172.415 7
  21658924.050    21658924.720   -17633429.018 9  25561973.618 8
  20273711.360    20273712.146   -29318948.808 8   7382314.911 6
 88  3 22  6 16 29.0800000  0  4G 6G13G11G 9
  22308366.747    22308367.481    -9618047.784 9  28724033.807 8
  20935926.039    20935930.333   -41800274.454 8  19838170.323 7
  21669632.206    21669635.307   -17577154.762 9  25605823.662 8
  20277583.658    20277581.496   -29298617.049 7   7398157.834 7
 88  3 22  6 16 59.0800000  0  4G 6G13G11G 9
  22326837.585    22326840.428    -9520984.912 9  28799667.174 9
  20931611.785    20931612.656   -41822949.265 8  19820501.670 8
  21680380.223    21680383.252   -17520668.883 9  25649838.641 8
  20281574.750    20281575.373   -29277633.571 8   7414508.581 6
 88  3 22  6 17 29.0800000  0  4G 6G13G11G 9
  22345383.030    22345387.387    -9423521.862 9  28875612.373 8
  20927377.492    20927378.648   -41845196.918 9  19803165.848 7
  21691169.115    21691170.266   -17463973.583 9  25694016.800 8
  20285690.991    20285691.856   -29255998.433 8   7431367.148 6
 88  3 22  6 17 59.0800000  0  4G 6G13G11G 9
  22364005.900    22364006.049    -9325660.809 9  28951867.765 7
  20923223.157    20923226.042   -41867018.307 8  19786162.166 7
  21701997.286    21701999.725   -17407071.288 9  25738356.253 8
  20289931.787    20289934.095   -29233711.539 8   7448733.543 6
 88  3 22  6 18 29.0800000  0  4G 6G13G11G 9
  22382703.458    22382705.081    -9227404.314 9  29028431.276 7
  20919153.726    20919153.518   -41888414.574 8  19769489.783 8
  21712865.040    21712866.963   -17349963.938 9  25782855.465 8
  20294298.839    20294297.210   -29210773.065 8   7466607.690 6
 88  3 22  6 18 59.0800000  0  4G 6G13G11G 9
  22401476.276    22401478.349    -9128754.783 9  29105301.003 9
  20915161.999    20915165.325   -41909386.715 8  19753147.827 8
  21723770.783    21723773.051   -17292653.914 8  25827512.618 9
  20298784.934    20298786.832   -29187182.927 7   7484989.569 7
 88  3 22  6 19 29.0800000  0  4G 6G13G11G 9
  22420323.680    22420324.058    -9029714.623 9  29182475.151 8
  20911253.403    20911254.381   -41929935.928 9  19737135.505 7
  21734714.862    21734717.476   -17235142.986 8  25872326.340 9
  20303399.916    20303398.584   -29162941.482 8   7503878.985 6
 88  3 22  6 19 59.0800000  0  4G 6G13G11G 9
  22439244.026    22439245.092    -8930286.335 9  29259951.690 8
  20907421.395    20907422.416   -41950063.399 9  19721451.745 7
  21745697.065    21745698.290   -17177433.541 8  25917294.755 8
  20308135.412    20308136.225   -29138048.637 8   7523276.012 8
 88  3 22  6 20 29.0800000  0  4G 6G13G11G 9
  22458238.431    22458238.941    -8830472.363 9  29337728.779 9
  20903671.488    20903671.303   -41969769.423 9  19706096.431 8
  21756715.953    21756717.004   -17119527.815 9  25962416.063 8
  20312997.312    20312998.789   -29112504.575 7   7543180.470 7
 88  3 22  6 20 59.0800000  0  4G 6G13G11G 9
  22477303.037    22477307.190    -8730275.144 9  29415804.508 8
  20900002.773    20900005.281   -41989055.390 9  19691068.406 7
  21767770.240    21767774.888   -17061427.793 9  26007688.799 9
  20317982.455    20317981.409   -29086309.663 8   7563592.063 7
 88  3 22  6 21 29.0800000  0  4G 6G13G11G 9
  22496441.673    22496446.295    -8629697.177 9  29494176.926 9
  20896410.878    20896413.211   -42007922.788 9  19676366.531 8
  21778866.168    21778864.520   -17003135.484 9  26053111.402 8
  20323089.397    20323093.587   -29059463.708 7   7584510.969 8
 88  3 22  6 21 59.0800000  0  4G 6G13G11G 9
  22515654.201    22515657.241    -8528741.083 8  29572844.006 7
  20892902.512    20892905.241   -42026372.064 9  19661990.475 7
  21789993.158    21789993.435   -16944653.031 9  26098682.123 8
  20328323.986    20328324.738   -29031967.412 7   7605936.681 7
 88  3 22  6 22 29.0800000  0  4G 6G13G11G 9
  22534938.103    22534939.885    -8427409.234 9  29651803.885 9
  20889470.979    20889471.292   -42044404.674 9  19647939.124 8
  21801158.423    21801157.670   -16885982.537 9  26144399.404 8
  20333678.992    20333680.489   -29003820.729 8   7627869.150 7
 88  3 22  6 22 59.0800000  0  4G 6G13G11G 9
  22554292.665    22554293.854    -8325704.180 9  29731054.566 8
  20886118.962    20886119.040   -42062021.338 8  19634211.851 7
  21812358.217    21812360.825   -16827125.974 8  26190261.688 8
  20339157.467    20339159.599   -28975024.107 8   7650308.068 8
 88  3 22  6 23 29.0800000  0  4G 6G13G11G 9
  22573717.199    22573717.348    -8223628.438 9  29810594.083 8
  20882846.384    20882844.439   -42079223.068 9  19620807.971 7
  21823594.848    21823593.486   -16768085.481 9  26236267.249 9
  20344763.219    20344764.328   -28945577.853 7   7673253.189 6
 88  3 22  6 23 59.0800000  0  4G 6G13G11G 9
  22593212.276    22593212.039    -8121184.696 9  29890420.338 9
  20879650.397    20879652.858   -42096011.304 9  19607726.186 7
  21834862.169    21834865.986   -16708863.310 9  26282414.388 9
  20350490.015    20350491.335   -28915482.355 7   7696704.200 7
 88  3 22  6 24 29.0800000  0  4G 6G13G11G 9
  22612775.031    22612777.127    -8018375.387 9  29970531.458 9
  20876534.071    20876534.186   -42112387.463 9  19594965.567 8
  21846164.979    21846168.675   -16649461.474 9  26328701.492 9
  20356339.843    20356342.064   -28884738.076 8   7720660.774 7
 88  3 22  6 24 59.0800000  0  4G 6G13G11G 9
  22632407.282    22632409.935    -7915203.092 9  30050925.410 8
  20873495.507    20873496.644   -42128352.618 9  19582525.202 7
  21857503.766    21857506.935   -16589882.159 9  26375126.924 9
  20362313.273    20362313.863   -28853345.225 8   7745122.723 7
 88  3 22  6 25 29.0800000  0  4G 6G13G11G 9
  22652109.614    22652111.959    -7811670.375 9  30131600.253 9
  20870534.204    20870535.460   -42143907.998 9  19570404.144 7
  21868874.682    21868877.028   -16530127.605 9  26421688.893 9
  20368412.624    20368413.939   -28821304.533 8   7770089.475 7
 88  3 22  6 25 59.0800000  0  4G 6G13G11G 9
  22671878.896    22671881.244    -7707779.894 9  30212553.861 8
  20867654.470    20867653.558   -42159054.425 9  19558601.747 8
  21880277.422    21880280.105   -16470199.938 8  26468385.782 8
  20374630.837    20374632.486   -28788616.110 7   7795560.945 7
 88  3 22  6 26 29.0800000  0  4G 6G13G11G 9
  22691716.571    22691717.813    -7603534.279 8  30293784.188 7
  20864848.440    20864850.020   -42173793.343 9  19547116.865 7
  21891715.665    21891717.319   -16410100.751 9  26515216.318 8
  20380976.564    20380974.951   -28755280.662 7   7821536.612 6
 88  3 22  6 26 59.0800000  0  4G 6G13G11G 9
  22711620.537    22711622.529    -7498936.039 9  30375289.300 7
  20862119.969    20862120.060   -42188125.867 8  19535948.667 8
  21903183.580    21903187.124   -16349832.100 9  26562178.915 8
  20387441.067    20387442.483   -28721298.975 7   7848015.841 7
 88  3 22  6 27 29.0800000  0  4G 6G13G11G 9
  22731592.042    22731593.127    -7393987.872 9  30457067.069 8
  20859471.223    20859469.996   -42202053.281 9  19525096.146 7
  21914684.159    21914685.476   -16289396.153 9  26609271.880 8
  20394032.091    20394033.101   -28686671.587 8   7874998.195 7
 88  3 22  6 27 59.0800000  0  4G 6G13G11G 9
  22751628.636    22751630.624    -7288692.344 8  30539115.519 8
  20856897.420    20856899.222   -42215576.603 9  19514558.508 8
  21926217.695    21926218.855   -16228794.940 9  26656493.563 8
  20400743.258    20400743.293   -28651398.730 8   7902483.560 7
 88  3 22  6 28 29.0800000  0  4G 6G13G11G 9
  22771731.419    22771733.258    -7183052.169 9  30621432.519 8
  20854400.657    20854398.872   -42228697.288 9  19504334.630 7
  21937779.071    21937783.163   -16168030.420 9  26703842.540 8
  20407579.305    20407580.481   -28615481.316 7   7930471.118 7
 88  3 22  6 28 59.0800000  0  4G 6G13G11G 9
  22791897.982    22791902.053    -7077069.921 8  30704016.083 8
  20851980.059    20851979.343   -42241416.919 9  19494423.217 8
  21949375.117    21949374.792   -16107104.717 9  26751317.150 9
  20414536.448    20414536.039   -28578920.012 8   7958960.434 8
 88  3 22  6 29 29.0800000  0  4G 6G13G11G 9
  22812131.707    22812134.421    -6970748.408 9  30786863.984 8
  20849634.628    20849638.117   -42253736.005 8  19484823.968 8
  21960999.017    21960998.263   -16046019.882 8  26798915.708 8
  20421614.661    20421616.777   -28541715.546 8   7987950.906 7
 88  3 22  6 29 59.0800000  0  4G 6G13G11G 9
  22832427.956    22832430.659    -6864090.139 9  30869974.281 9
  20847367.132    20847367.558   -42265656.534 9  19475535.233 7
  21972651.060    21972652.695   -15984778.069 8  26846636.605 7
  20428817.332    20428817.834   -28503868.407 8   8017442.187 7
 88  3 22  6 30 29.0800000  0  4G 6G13G11G 9
  22852789.364    22852789.554    -6757097.979 9  30953344.787 8
  20845175.668    20845174.078   -42277179.403 9  19466556.408 8
  21984333.989    21984336.824   -15923381.125 8  26894478.375 8
  20436141.502    20436142.109   -28465379.607 7   8047433.430 7
 88  3 22  6 30 59.0800000  0  4G 6G13G11G 9
  22873211.162    22873213.195    -6649774.424 9  31036973.505 8
  20843056.742    20843059.970   -42288305.892 9  19457886.382 8
  21996047.771    21996048.202   -15861831.020 8  26942439.484 9
  20443588.099    20443589.145   -28426249.625 8   8077924.309 7
 88  3 22  6 31 29.0800000  0  4G 6G13G11G 9
  22893696.711    22893698.632    -6542122.292 9  31120858.247 8
  20841015.133    20841014.484   -42299037.507 9  19449524.136 7
  22007789.399    22007790.371   -15800129.803 8  26990518.353 8
  20451155.953    20451157.845   -28386479.536 8   8108913.956 8
 88  3 22  6 31 59.0800000  0  4G 6G13G11G 9
  22914245.632    22914246.146    -6434144.187 9  31204997.004 9
  20839047.379    20839049.169   -42309375.729 9  19441468.389 7
  22019557.650    22019561.061   -15738279.407 9  27038713.478 9
  20458845.286    20458846.354   -28346070.150 8   8140401.753 7
 88  3 22  6 32 29.0800000  0  4G 6G13G11G 9
  22934854.274    22934855.090    -6325842.891 8  31289387.592 9
  20837155.818    20837157.346   -42319321.332 9  19433718.573 8
  22031355.961    22031359.123   -15676281.713 8  27087023.329 9
  20466656.407    20466658.403   -28305022.463 8   8172386.968 7
 88  3 22  6 32 59.0800000  0  4G 6G13G11G 9
  22955524.022    22955525.397    -6217221.269 9  31374027.787 9
  20835335.612    20835338.238   -42328875.810 9  19426273.516 8
  22043182.013    22043184.440   -15614138.616 9  27135446.519 9
  20474587.115    20474590.317   -28263337.075 6   8204869.060 7
 88  3 22  6 33 29.0800000  0  4G 6G13G11G 9
  22976252.627    22976255.982    -6108282.002 9  31458915.506 8
  20833594.335    20833595.225   -42338040.661 9  19419132.099 7
  22055035.319    22055037.131   -15551852.220 9  27183981.342 9
  20482640.935    20482644.114   -28221015.223 8   8237847.134 7
 88  3 22  6 33 59.0800000  0  4G 6G13G11G 9
  22997042.389    22997044.742    -5999027.723 9  31544048.689 9
  20831921.346    20831926.324   -42346817.257 9  19412293.164 8
  22066914.925    22066916.199   -15489424.651 9  27232626.212 8
  20490815.046    20490818.104   -28178057.631 7   8271320.575 6
 88  3 22  6 34 29.0800000  0  4G 6G13G11G 9
  23017893.807    23017897.153    -5889461.196 8  31629425.161 8
  20830326.923    20830329.465   -42355207.238 9  19405755.523 8
  22078820.135    22078820.850   -15426857.402 8  27281379.928 9
  20499112.471    20499113.976   -28134465.281 8   8305288.645 6
 88  3 22  6 34 59.0800000  0  4G 6G13G11G 9
  23038804.470    23038804.295    -5779585.266 9  31715042.752 8
  20828800.434    20828803.342   -42363211.721 9  19399518.292 7
  22090752.237    22090753.648   -15364152.626 8  27330240.773 9
  20507527.368    20507529.760   -28090239.436 8   8339750.319 6
 88  3 22  6 35 29.0800000  0  4G 6G13G11G 9
  23059770.367    23059770.680    -5669402.662 8  31800899.299 8
  20827352.707    20827355.374   -42370831.914 9  19393580.485 7
  22102710.390    22102713.204   -15301312.558 8  27379207.060 9
  20516065.788    20516065.403   -28045380.803 9   8374705.086 7
 88  3 22  6 35 59.0800000  0  4G 6G13G11G 9
  23080796.145    23080797.705    -5558916.169 9  31886992.622 8
  20825974.901    20825979.114   -42378069.756 9  19387940.614 8
  22114694.683    22114695.659   -15238338.876 7  27428277.445 9
  20524722.701    20524723.619   -27999890.775 8   8410151.822 7
 88  3 22  6 36 29.0800000  0  4G 6G13G11G 9
  23101877.705    23101879.873    -5448128.558 9  31973320.618 7
  20824669.035    20824671.295   -42384926.215 9  19382597.937 7
  22126701.918    22126706.300   -15175233.290 8  27477450.608 9
  20533497.514    20533498.881   -27953770.271 8   8446089.867 6
 88  3 22  6 36 59.0800000  0  4G 6G13G11G 9
  23123015.227    23123019.194    -5337042.547 9  32059881.153 8
  20823437.608    20823438.733   -42391402.480 8  19377551.499 7
  22138735.089    22138740.174   -15111997.690 9  27526725.061 9
  20542393.230    20542394.727   -27907020.457 9   8482518.259 7
 88  3 22  6 37 29.0800000  0  4G 6G13G11G 9
  23144211.513    23144212.164    -5225661.060 9  32146671.895 8
  20822277.579    20822280.563   -42397500.288 9  19372799.973 8
  22150795.049    22150795.215   -15048634.294 9  27576099.152 8
  20551409.142    20551411.777   -27859642.549 8   8519436.083 7
 88  3 22  6 37 59.0800000  0  4G 6G13G11G 9
  23165462.626    23165464.092    -5113986.743 9  32233690.818 8
  20821188.850    20821189.493   -42403221.186 9  19368342.139 6
  22162876.251    22162878.422   -14985144.761 9  27625571.501 8
  20560544.308    20560546.440   -27811637.707 8   8556842.471 7
 88  3 22  6 38 29.0800000  0  4G 6G13G11G 9
  23186768.905    23186769.389    -5002022.701 9  32320935.529 8
  20820169.826    20820174.494   -42408566.661 8  19364176.820 8
  22174981.924    22174983.192   -14921531.204 9  27675140.533 8
  20569798.581    20569800.208   -27763007.054 8   8594736.433 7
 88  3 22  6 38 59.0800000  0  4G 6G13G11G 9
  23208129.615    23208130.735    -4889771.541 9  32408403.950 8
  20819226.040    20819228.777   -42413537.556 9  19360303.435 7
  22187109.785    22187111.636   -14857795.306 9  27724804.871 8
  20579171.544    20579171.930   -27713752.006 8   8633116.984 6
 88  3 22  6 39 29.0800000  0  4G 6G13G11G 9
  23229543.024    23229545.337    -4777236.080 9  32496093.890 7
  20818350.568    20818351.795   -42418136.386 8  19356719.935 8
  22199261.838    22199264.050   -14793938.638 9  27774563.313 9
  20588662.358    20588664.786   -27663873.811 8   8671983.113 7
 88  3 22  6 39 59.0800000  0  4G 6G13G11G 9
  23251011.727    23251014.233    -4664419.176 9  32584003.112 9
  20817546.275    20817548.530   -42422363.845 9  19353425.804 8
  22211434.477    22211437.038   -14729963.312 9  27824414.189 9
  20598273.044    20598271.496   -27613373.581 8   8711333.938 7
 88  3 22  6 40 29.0800000  0  4G 6G13G11G 9
  23272534.401    23272534.723    -4551323.799 9  32672129.365 8
  20816813.036    20816814.655   -42426221.426 8  19350419.892 8
  22223632.815    22223633.110   -14665871.386 9  27874355.953 9
  20607999.962    20608001.263   -27562252.936 8   8751168.192 6
 88  3 22  6 40 59.0800000  0  4G 6G13G11G 9
  23294109.062    23294109.175    -4437952.494 8  32760470.633 8
  20816147.655    20816151.263   -42429710.794 9  19347700.920 8
  22235848.391    22235852.332   -14601664.546 8  27924387.250 9
  20617847.423    20617848.864   -27510512.832 8   8791485.178 6
 88  3 22  6 41 29.0800000  0  4G 6G13G11G 9
  23315732.873    23315736.388    -4324308.377 8  32849024.457 8
  20815555.753    20815555.862   -42432834.059 9  19345267.242 8
  22248090.698    22248091.890   -14537344.376 9  27974506.846 8
  20627808.973    20627811.697   -27458155.072 8   8832283.399 7
 88  3 22  6 41 59.0800000  0  4G 6G13G11G 9
  23337408.369    23337412.926    -4210394.165 8  32937788.749 9
  20815027.463    20815028.952   -42435592.118 9  19343118.119 8
  22260349.754    22260351.452   -14472912.681 9  28024713.383 8
  20637891.245    20637890.214   -27405180.841 8   8873561.990 7
 88  3 22  6 42 29.0800000  0  4G 6G13G11G 9
  23359136.539    23359141.311    -4096212.852 8  33026761.147 8
  20814574.759    20814575.473   -42437986.169 8  19341252.631 8
  22272631.173    22272632.799   -14408371.388 9  28075005.300 8
  20648088.090    20648089.558   -27351591.463 8   8915319.944 7
 88  3 22  6 42 59.0800000  0  4G 6G13G11G 9
  23380916.268    23380918.450    -3981767.269 9  33115939.502 9
  20814185.657    20814188.834   -42440018.109 9  19339669.286 9
  22284932.231    22284936.596   -14343722.310 9  28125381.174 9
  20658403.902    20658404.921   -27297388.741 9   8957555.802 7
 88  3 22  6 43 29.0800000  0  4G 6G13G11G 9
  23402744.454    23402745.927    -3867060.409 8  33205321.477 8
  20813868.523    20813871.774   -42441689.454 9  19338366.925 8
  22297257.998    22297260.182   -14278967.408 9  28175839.553 9
  20668833.246    20668833.999   -27242573.927 9   9000268.633 7
 88  3 22  6 43 59.0800000  0  4G 6G13G11G 9
  23424621.692    23424623.971    -3752094.800 8  33294905.036 8
  20813618.174    20813620.443   -42443001.911 9  19337344.260 8
  22309598.885    22309600.802   -14214108.206 8  28226379.122 9
  20679381.504    20679382.118   -27187148.514 8   9043457.253 8
 88  3 22  6 44 29.0800000  0  4G 6G13G11G 9
  23446546.815    23446550.233    -3636873.544 9  33384687.792 8
  20813437.466    20813437.620   -42443956.611 9  19336600.352 8
  22321961.454    22321963.462   -14149146.657 9  28276998.522 8
  20690043.595    20690044.502   -27131114.053 8   9087120.453 7
 88  3 22  6 44 59.0800000  0  4G 6G13G11G 9
  23468521.841    23468524.424    -3521399.677 9  33474667.432 8
  20813322.277    20813325.325   -42444555.503 9  19336133.705 8
  22334341.129    22334343.046   -14084084.494 9  28327696.297 9
  20700822.491    20700824.743   -27074472.330 8   9131256.835 8
 88  3 22  6 45 29.0800000  0  4G 6G13G11G 9
  23490543.494    23490546.957    -3405676.013 8  33564841.680 8
  20813276.393    20813277.781   -42444799.752 9  19335943.389 7
  22346742.228    22346744.251   -14018923.406 9  28378471.183 9
  20711714.279    20711718.581   -27017224.847 8   9175865.230 8
 88  3 22  6 45 59.0800000  0  4G 6G13G11G 9
  23512612.228    23512613.274    -3289705.511 9  33655208.291 8
  20813296.983    20813298.418   -42444691.585 9  19336027.668 7
  22359160.528    22359161.448   -13953664.973 9  28429321.906 8
  20722724.222    20722727.358   -26959373.205 8   9220944.441 7
 88  3 22  6 46 29.0800000  0  4G 6G13G11G 9
  23534726.386    23534726.095    -3173490.922 9  33745765.117 7
  20813385.457    20813386.898   -42444232.230 9  19336385.635 9
  22371595.388    22371597.186   -13888310.982 8  28480247.064 8
  20733847.634    20733849.548   -26900918.926 7   9266493.219 8
 88  3 22  6 46 59.0800000  0  4G 6G13G11G 9
  23556886.826    23556886.687    -3057035.219 8  33836509.799 7
  20813538.515    20813540.847   -42443422.887 9  19337016.280 8
  22384048.572    22384052.250   -13822863.166 8  28531245.352 8
  20745085.095    20745088.455   -26841863.675 8   9312510.258 8
 88  3 22  6 47 29.0800000  0  4G 6G13G11G 9
  23579092.323    23579094.656    -2940341.291 8  33927440.152 7
  20813759.951    20813762.075   -42442265.761 9  19337917.950 8
  22396520.207    22396522.178   -13757323.314 8  28582315.378 9
  20756438.523    20756439.031   -26782209.344 7   9358994.164 6
 88  3 22  6 47 59.0800000  0  4G 6G13G11G 9
  23601344.833    23601344.222    -2823412.145 8  34018553.733 7
  20814045.241    20814047.111   -42440762.039 9  19339089.699 8
  22409011.903    22409012.637   -13691693.239 9  28633455.689 8
  20767902.538    20767905.136   -26721957.575 8   9405943.558 7
 88  3 22  6 48 29.0800000  0  4G 6G13G11G 9
  23623640.547    23623641.019    -2706250.599 9  34109848.446 9
  20814397.774    20814397.115   -42438913.319 9  19340530.260 7
  22421517.050    22421519.768   -13625974.530 9  28684665.070 9
  20779483.920    20779484.061   -26661110.017 8   9453357.231 8
 88  3 22  6 48 59.0800000  0  4G 6G13G11G 9
  23645977.344    23645980.518    -2588859.504 9  34201321.981 8
  20814812.803    20814817.376   -42436721.334 9  19342238.276 8
  22434038.976    22434042.267   -13560168.559 9  28735942.435 8
  20791174.046    20791176.562   -26599668.600 8   9501233.649 8
 88  3 22  6 49 29.0800000  0  4G 6G13G11G 9
  23668359.953    23668362.785    -2471241.912 7  34292972.013 9
  20815298.047    20815296.202   -42434187.685 9  19344212.597 8
  22446578.780    22446580.101   -13494277.112 9  28787286.420 9
  20802979.383    20802980.023   -26537635.111 9   9549571.404 9
 88  3 22  6 49 59.0800000  0  4G 6G13G11G 9
  23690780.992    23690786.875    -2353400.672 7  34384796.302 9
  20815843.648    20815845.113   -42431313.799 9  19346451.997 8
  22459133.427    22459132.997   -13428301.998 9  28838695.616 8
  20814896.320    20814898.933   -26475011.295 8   9598369.155 8
 88  3 22  6 50 29.0800000  0  4G 6G13G11G 9
  23713248.078    23713254.071    -2235337.871 6  34476793.235 9
  20816454.707    20816457.060   -42428100.636 9  19348955.742 8
  22471703.442    22471704.280   -13362243.854 9  28890169.518 8
  20826926.846    20826927.297   -26411797.943 8   9647626.283 8
 88  3 22  6 50 59.0800000  0  4G 6G13G11G 9
  23735757.971    23735761.956    -2117056.804 7  34568960.267 8
  20817130.464    20817131.594   -42424549.643 9  19351722.768 8
  22484288.377    22484291.819   -13296104.723 8  28941706.486 9
  20839067.275    20839068.509   -26347997.436 9   9697340.959 7
 88  3 22  6 51 29.0800000  0  4G 6G13G11G 9
  23758307.999    23758310.415    -1998560.930 9  34661294.696 8
  20817869.389    20817871.131   -42420663.375 9  19354751.037 9
  22496891.435    22496892.227   -13229886.866 9  28993304.779 9
  20851317.190    20851319.482   -26283612.319 9   9747511.186 7
 88  3 22  6 51 59.0800000  0  4G 6G13G11G 9
  23780896.770    23780900.182    -1879853.299 8  34753794.106 8
  20818672.526    20818674.689   -42416443.528 9  19358039.240 8
  22509507.222    22509508.962   -13163591.959 9  29044963.137 9
  20863680.176    20863682.772   -26218644.314 7   9798135.556 8
 88  3 22  6 52 29.0800000  0  4G 6G13G11G 9
  23803525.898    23803529.748    -1760936.910 9  34846456.187 8
  20819538.400    20819541.032   -42411891.813 9  19361586.044 8
  22522137.020    22522138.556   -13097221.509 9  29096680.371 8
  20876154.259    20876156.167   -26153095.702 8   9849212.374 7
 88  3 22  6 52 59.0800000  0  4G 6G13G11G 9
  23826195.093    23826197.970    -1641814.626 9  34939278.694 9
  20820469.142    20820468.855   -42407010.177 8  19365389.952 8
  22534779.048    22534781.061   -13030776.985 9  29148455.308 8
  20888738.606    20888742.016   -26086968.143 8   9900740.300 7
 88  3 22  6 53 29.0800000  0  4G 6G13G11G 9
  23848901.915    23848905.347    -1522489.445 9  35032259.334 9
  20821458.757    20821461.794   -42401799.726 9  19369450.007 9
  22547437.217    22547438.138   -12964259.922 9  29200286.803 9
  20901433.021    20901431.755   -26020263.759 8   9952717.729 7
 88  3 22  6 53 59.0800000  0  4G 6G13G11G 9
  23871646.238    23871649.768    -1402964.334 9  35125395.757 9
  20822511.878    20822515.065   -42396262.525 8  19373764.732 7
  22560109.209    22560108.846   -12897672.078 9  29252173.401 9
  20914235.021    20914236.249   -25952984.657 9  10005142.981 6
 88  3 22  6 54 29.0800000  0  4G 6G13G11G 9
  23894427.188    23894431.682    -1283242.289 9  35218685.651 9
  20823628.761    20823629.542   -42390399.977 8  19378332.930 8
  22572793.983    22572794.718   -12831015.198 9  29304113.806 9
  20927145.612    20927147.701   -25885132.766 9  10058014.563 7
 88  3 22  6 54 59.0800000  0  4G 6G13G11G 9
  23917248.140    23917251.209    -1163326.226 8  35312126.720 8
  20824805.866    20824808.137   -42384214.103 9  19383153.098 8
  22585489.528    22585493.143   -12764290.598 9  29356106.989 9
  20940167.152    20940168.303   -25816710.202 9  10111330.802 7
 88  3 22  6 55 29.0800000  0  4G 6G13G11G 9
  23940104.161    23940107.464    -1043219.155 9  35405716.627 7
  20826043.657    20826045.130   -42377706.369 9  19388224.073 8
  22598199.163    22598202.730   -12697499.936 8  29408151.641 9
  20953294.899    20953296.850   -25747718.921 8  10165090.287 7
 88  3 22  6 55 59.0800000  0  4G 6G13G11G 9
  23962996.263    23962999.587     -922923.919 9  35499453.140 9
  20827343.099    20827345.486   -42370878.823 9  19393544.227 8
  22610922.410    22610925.190   -12630644.583 9  29460246.693 9
  20966531.454    20966533.493   -25678161.135 8  10219291.107 7
 88  3 22  6 56 29.0800000  0  4G 6G13G11G 9
  23985922.497    23985924.204     -802443.649 9  35593333.855 8
  20828702.666    20828705.999   -42363732.471 9  19399112.810 9
  22623657.677    22623658.268   -12563726.190 9  29512390.868 9
  20979875.668    20979876.386   -25608039.016 9  10273931.688 6
 88  3 22  6 56 59.0800000  0  4G 6G13G11G 9
  24008883.376    24008885.987     -681781.216 9  35687356.538 7
  20830124.449    20830123.649   -42356268.841 9  19404928.659 7
  22636402.779    22636403.136   -12496746.198 9  29564583.068 8
  20993327.136    20993329.220   -25537354.608 8  10329010.476 6
 88  3 22  6 57 29.0800000  0  4G 6G13G11G 9
  24031879.570    24031882.072     -560939.657 8  35781518.765 8
  20831602.327    20831606.676   -42348489.839 9  19410990.230 8
  22649160.549    22649160.950   -12429706.283 9  29616821.951 8
  21006883.480    21006885.863   -25466110.212 9  10384525.549 8
 88  3 22  6 57 59.0800000  0  4G 6G13G11G 9
  24054908.108    24054911.229     -439922.029 8  35875818.199 8
  20833145.163    20833145.618   -42340397.198 9  19417296.202 8
  22661925.942    22661931.509   -12362607.661 9  29669106.564 8
  21020548.374    21020548.339   -25394308.138 8  10440475.216 7
 88  3 22  6 58 29.0800000  0  4G 6G13G11G 9
  24077969.924    24077972.223     -318731.148 8  35970252.622 9
  20834742.173    20834745.164   -42331992.893 9  19423845.010 9
  22674706.216    22674708.672   -12295452.019 8  29721435.626 8
  21034317.210    21034318.557   -25321950.389 9  10496857.857 6
 88  3 22  6 58 59.0800000  0  4G 6G13G11G 9
  24101064.766    24101067.325     -197370.100 8  36064819.638 9
  20836402.473    20836403.235   -42323278.746 9  19430635.264 8
  22687497.842    22687499.664   -12228240.772 9  29773808.027 9
  21048191.821    21048192.284   -25249039.196 8  10553671.757 7
 88  3 22  6 59 29.0800000  0  4G 6G13G11G 9
  24124189.588    24124192.264      -75841.823 8  36159516.978 8
  20838119.650    20838121.211   -42314255.780 8  19437666.160 8
  22700298.608    22700298.435   -12160975.451 9  29826222.566 8
  21062170.263    21062171.058   -25175576.931 9  10610915.062 8
 88  3 22  6 59 59.0800000  0  4G 6G13G11G 9
  24147345.037    24147349.153       45850.593 7  36254342.214 8
  20839893.222    20839893.543   -42304925.954 9  19444936.181 8
  22713108.062    22713109.150   -12093657.487 9  29878678.127 8
  21076255.686    21076257.986   -25101565.826 9  10668586.027 7
 88  3 22  7  0 29.0800000  0  4G 6G13G11G 9
  24170533.369    24170537.208      167704.283 8  36349293.116 8
  20841725.326    20841730.079   -42295291.242 9  19452443.710 9
  22725927.563    22725930.053   -12026288.210 9  29931173.637 7
  21090442.849    21090441.855   -25027008.412 8  10726682.704 6
 88  3 22  7  0 59.0800000  0  4G 6G13G11G 9
  24193752.729    24193755.492      289716.213 8  36444367.310 8
  20843618.060    20843620.891   -42285353.362 9  19460187.545 8
  22738756.203    22738759.402   -11958869.134 9  29983707.970 9
  21104734.904    21104735.037   -24951906.779 8  10785203.454 7
 88  3 22  7  1 29.0800000  0  4G 6G13G11G 9
  24217000.055    24217002.832      411883.428 9  36539562.516 8
  20845566.188    20845567.914   -42275113.394 9  19468166.710 8
  22751595.697    22751597.905   -11891401.598 8  30036280.040 8
  21119128.555    21119130.077   -24876263.140 9  10844146.532 7
 88  3 22  7  1 59.0800000  0  4G 6G13G11G 9
  24240276.291    24240279.856      534202.752 9  36634876.250 8
  20847571.734    20847576.470   -42264573.598 9  19476379.533 7
  22764445.009    22764444.474   -11823886.954 9  30088888.843 8
  21133626.439    21133626.299   -24800080.007 9  10903510.014 7
 88  3 22  7  2 29.0800000  0  4G 3G13G11G 9
                  23188121.840   -83053587.106 9
  20849635.780    20849635.491   -42253735.869 9  19484824.568 7
  22777299.041    22777301.582   -11756326.874 3  30141533.050 5
  21148225.668    21148225.407   -24723359.910 8  10963291.888 8
 88  3 22  7  2 59.0800000  0  4G 3G13G11G 9
  23176280.352    23176284.079   -83115994.767 9 105431859.153 8
  20851753.813    20851756.048   -42242601.649 9  19493500.546 7
  22790162.880    22790167.411   -11688722.404 2  30194211.837 1
  21162925.963    21162928.095   -24646105.031 9  11023490.462 7
 88  3 22  7  3 29.0800000  0  4G 3G13G11G 9
  23164448.296    23164452.309   -83178160.972 9 105383417.958 8
  20853928.354    20853930.232   -42231172.687 9  19502406.234 6
  22803036.261    22803038.616   -11621075.339 9  30246923.838 7
  21177729.270    21177729.027   -24568317.943 9  11084103.761 7
 88  3 22  7  3 59.0800000  0  4G 3G13G11G 9
  23152666.323    23152665.246   -83240086.671 8 105335164.199 8
  20856159.247    20856159.671   -42219450.429 9  19511540.491 7
  22815918.099    22815917.868   -11553386.770 9  30299668.171 8
  21192632.065    21192632.368   -24490001.194 9  11145129.795 7
 88  3 22  7  4 29.0800000  0  4G 3G13G11G 9
                  22765741.441   -83873866.651 1
  20858446.159    20858448.584   -42207436.970 3  19520901.635 8
  22828806.906    22828806.543   -11485658.201 5  30352443.693 4
  21207634.907    21207635.782   -24411157.089 9  11206566.720 8
 88  3 22  7  4 59.0800000  0  3G 3G11G 9
                  23129203.179   -83953411.483 9
  22841701.733    22841703.440   -11417890.945 6  30405249.339 6
  21222738.270    21222741.361   -24331788.086 4  11268412.673 1
 88  3 22  7  5 29.0800000  0  4G 3G13G11G 9
  23117588.393    23117589.461   -84014616.119 9 106595930.285 8
                  20863181.777   -84011646.429 8
  22854602.049    22854606.740   -11350086.380 7  30458084.033 8
  21237940.435    21237943.203   -24251896.636 9  11330665.716 7
 88  3 22  7  5 59.0800000  0  4G 3G13G11G 9
  23105987.874    23105985.789   -84075581.467 8 106548424.810 8
  20865631.017    20865635.143   -83998768.984 8 106740074.357 8
  22867511.227    22867515.862   -11282245.494 6  30510947.019 6
  21253242.800    21253246.067   -24171485.440 3  11393323.764 1
 88  3 22  7  6 29.0800000  0  4G 3G13G11G 9
  23094430.231    23094431.154   -84136308.004 8 106501105.446 8
  20868137.927    20868141.425   -83985607.171 9 106750330.272 8
  22880429.481    22880432.193   -11214369.819 8  30563837.131 8
  21268642.950    21268645.283   -24090557.001 8  11456384.874 8
 88  3 22  7  6 59.0800000  0  4G 3G13G11G 9
  23082921.512    23082922.184   -84196795.445 9 106453972.422 7
  20870695.675    20870698.533   -83972163.008 8 106760806.275 7
  22893352.392    22893355.169   -11146460.751 9  30616753.284 8
  21284139.972    21284143.396   -24009113.982 8  11519846.970 7
 88  3 22  7  7 29.0800000  0  4G 3G13G11G 9
  23071454.501    23071455.366   -84257043.844 1 106407025.615 8
                  20806487.886   -84942911.295 1
  22906282.351    22906283.434   -11078519.370 3  30669694.596 3
  21299737.516    21299739.044   -23927158.732 6  11583708.230 6
 88  3 22  7  7 59.0800000  0  3G 3G11G 9
  23060036.775    23060037.268   -84317053.538 8 106360264.839 8
  22919217.938    22919219.167   -11010547.023 3  30722660.067 7
  21315428.918    21315431.378   -23844693.768 3  11647966.587 2
 88  3 22  7  8 29.0800000  0  3G 3G11G 9
  23048660.984    23048664.488   -84376824.855 9 106313689.791 7
  22932158.576    22932160.251   -10942545.167 8  30775648.563 9
  21331217.767    21331217.847   -23761722.202 8  11712619.767 7
 88  3 22  7  8 59.0800000  0  4G 3G13G11G 9
  23037333.446    23037333.500   -84436358.230 8 106267300.188 7
                  21189314.484   -85488090.854 1
  22945104.236    22945106.245   -10874515.135 9  30828658.939 8
  21347103.702    21347105.586   -23678246.164 9  11777665.980 8
 88  3 22  7  9 29.0800000  0  3G 3G11G 9
  23026050.078    23026050.514   -84495653.690 9 106221095.922 7
  22958052.259    22958053.691   -10806457.897 8  30881690.536 9
  21363084.449    21363082.920   -23594268.565 9  11843103.045 7
 88  3 22  7  9 59.0800000  0  4G 3G13G11G 9
  23014811.523    23014813.390   -84554711.916 9 106175076.533 7
  20887158.394    20887159.859   -85505547.036 9 108697755.885 8
  22971008.423    22971010.115   -10738374.731 8  30934742.398 7
  21379160.103    21379161.438   -23509792.130 9  11908928.840 6
 88  3 22  7 10 29.0800000  0  4G 3G13G11G 9
  23003617.728    23003619.290   -84613532.658 9 106129242.205 8
  20890083.240    20890085.630   -85490171.874 9 108709736.017 9
  22983970.527    22983971.672   -10670266.879 9  30987813.411 9
  21395330.525    21395329.639   -23424819.006 9  11975141.639 7
 88  3 22  7 10 59.0800000  0  4G 3G13G11G 9
  22992470.252    22992472.409   -84672116.349 9 106083592.609 7
  20893058.977    20893062.766   -85474527.625 9 108721926.323 7
  22996934.489    22996935.400   -10602135.485 9  31040902.750 8
  21411593.941    21411592.380   -23339352.532 9  12041738.874 8
 88  3 22  7 11 29.0800000  0  4G 3G13G11G 9
  22981366.571    22981367.493   -84730463.858 9 106038127.021 8
  20896088.717    20896087.557   -85458616.128 9 108734324.917 7
  23009903.482    23009904.211   -10533981.721 9  31094009.556 9
  21427949.414    21427951.272   -23253395.117 9  12108718.644 8
 88  3 22  7 11 59.0800000  0  4G 3G13G11G 9
  22970309.127    22970310.933   -84788575.593 9 105992845.188 8
  20899167.188    20899168.412   -85442439.108 9 108746930.394 7
  23022878.271    23022877.479   -10465806.861 8  31147132.839 8
  21444398.612    21444402.735   -23166949.631 9  12176078.757 7
 88  3 22  7 12 29.0800000  0  4G 3G13G11G 9
  22959295.004    22959295.936   -84846451.663 8 105947746.971 8
  20902294.264    20902298.574   -85425998.323 9 108759741.391 8
  23035853.763    23035857.869   -10397612.411 9  31200271.323 9
  21460943.393    21460944.318   -23080018.607 8  12243817.218 7
 88  3 22  7 12 59.0800000  0  4G 3G13G11G 9
  22948325.267    22948326.995   -84904092.404 8 105902832.123 8
  20905473.978    20905474.215   -85409295.468 9 108772756.612 8
  23048835.555    23048836.918   -10329399.323 9  31253424.333 8
  21477576.953    21477577.942   -22992605.129 9  12311931.608 7
 88  3 22  7 13 29.0800000  0  4G 3G13G11G 9
  22937401.438    22937403.033   -84961497.848 9 105858100.635 7
  20908701.197    20908703.978   -85392331.850 9 108785974.988 8
  23061817.864    23061820.089   -10261168.619 8  31306591.108 8
  21494303.380    21494304.454   -22904711.402 9  12380420.221 7
 88  3 22  7 13 59.0800000  0  4G 3G13G11G 9
  22926522.752    22926523.840   -85018668.211 9 105813552.324 8
  20911979.691    20911980.878   -85375109.437 9 108799395.088 8
  23074805.737    23074808.388   -10192921.177 9  31359770.913 9
  21511119.974    21511121.604   -22816340.399 9  12449280.744 6
 88  3 22  7 14 29.0800000  0  4G 3G13G11G 9
  22915687.630    22915689.816   -85075604.286 9 105769186.559 9
  20915304.457    20915308.165   -85357630.441 8 108813015.068 8
  23087796.798    23087796.464   -10124658.173 9  31412962.853 9
  21528026.405    21528027.779   -22727495.143 9  12518510.798 7
 88  3 22  7 14 59.0800000  0  4G 3G13G11G 9
  22904898.055    22904898.910   -85132306.722 8 105725002.859 8
  20918679.629    20918683.893   -85339896.312 9 108826833.848 8
  23100788.488    23100790.670   -10056381.090 9  31466165.770 9
  21545022.963    21545024.603   -22638178.615 9  12588108.045 8
 88  3 22  7 15 29.0800000  0  4G 3G13G11G 9
  22894153.173    22894154.480   -85188775.906 9 105681000.920 8
  20922103.551    20922104.224   -85321908.896 9 108840850.027 7
  23113783.564    23113787.080    -9988090.783 8  31519378.993 8
  21562106.461    21562109.382   -22548393.037 9  12658070.815 7
 88  3 22  7 15 59.0800000  0  4G 3G13G11G 9
  22883450.897    22883453.019   -85245011.823 7 105637180.745 5
  20925571.071    20925575.993   -85303669.514 1 108855062.556 1
  23126782.116    23126784.127    -9919788.607 8  31572601.450 8
  21579282.401    21579283.097   -22458142.135 9  12728396.197 8
 88  3 22  7 16 29.0800000  0  4G 3G13G11G 9
  22872795.386    22872797.324   -85301014.879 5 105593542.012 6
                  20929094.137   -85285176.673 4
  23139782.155    23139783.149    -9851475.477 9  31625832.467 9
  21596544.094    21596545.244   -22367428.360 8  12799082.242 8
 88  3 22  7 16 59.0800000  0  4G 3G13G11G 9
  22862180.078    22862185.557   -85356785.788 7 105550084.153 8
  20932656.709    20932658.749   -85266440.166 9 109012706.876 8
  23152784.361    23152785.441    -9783152.647 8  31679071.014 9
  21613894.000    21613895.032   -22276254.492 9  12870126.791 7
 88  3 22  7 17 29.0800000  0  4G 3G13G11G 9
  22851613.226    22851613.964   -85412325.016 8 105506806.884 8
  20936269.322    20936271.965   -85247455.641 9 109027500.039 8
  23165784.877    23165787.515    -9714821.167 8  31732316.290 9
  21631330.989    21631331.586   -22184623.461 9  12941527.570 8
 88  3 22  7 17 59.0800000  0  4G 3G13G11G 9
  22841087.510    22841090.453   -85467632.545 9 105463710.107 7
  20939931.640    20939933.292   -85228226.075 9 109042484.074 8
  23178790.960    23178793.086    -9646482.003 8  31785567.547 8
  21648855.501    21648854.986   -22092538.398 9  13013282.166 8
 88  3 22  7 18 29.0800000  0  4G 3G13G11G 9
  22830608.058    22830612.727   -85522708.877 9 105420793.481 9
  20943636.084    20943635.894   -85208753.183 9 109057657.776 8
  23191796.853    23191797.445    -9578136.254 8  31838823.963 8
  21666463.365    21666464.336   -22000002.133 9  13085388.324 7
 88  3 22  7 18 59.0800000  0  4G 3G13G11G 9
  22820169.912    22820172.866   -85577554.603 9 105378056.614 9
  20947388.398    20947388.090   -85189038.989 9 109073019.507 7
  23204802.630    23204805.168    -9509784.901 8  31892084.709 8
  21684158.226    21684159.332   -21907017.390 9  13157843.971 8
 88  3 22  7 19 29.0800000  0  4G 3G13G11G 9
  22809778.148    22809779.071   -85632170.367 9 105335498.897 8
  20951183.706    20951183.532   -85169085.113 9 109088568.012 8
  23217810.776    23217812.220    -9441429.078 9  31945349.005 9
  21701938.168    21701939.009   -21813587.241 9  13230646.670 9
 88  3 22  7 19 59.0800000  0  4G 3G13G11G 9
  22799427.742    22799431.951   -85686556.431 9 105293120.146 7
  20955024.282    20955029.379   -85148892.944 8 109104302.153 7
  23230819.546    23230821.764    -9373069.883 8  31998615.925 8
  21719801.268    21719801.868   -21719714.821 9  13303793.988 8
 88  3 22  7 20 29.0800000  0  4G 3G13G11G 9
  22789121.664    22789124.480   -85740713.232 9 105250920.079 8
  20958912.703    20958915.253   -85128464.433 8 109120220.474 8
  23243826.753    23243827.682    -9304708.163 7  32051884.757 7
  21737748.968    21737748.101   -21625402.996 9  13377283.715 8
 88  3 22  7 20 59.0800000  0  4G 3G13G11G 9
  22778858.917    22778864.049   -85794641.414 9 105208898.159 9
  20962845.733    20962846.632   -85107800.991 9 109136321.833 8
  23256835.439    23256837.276    -9236345.046 7  32105154.773 7
  21755778.253    21755779.298   -21530654.591 9  13451113.613 7
 88  3 22  7 21 29.0800000  0  4G 3G13G11G 9
  22768640.723    22768643.581   -85848341.210 9 105167054.194 7
  20966822.061    20966824.552   -85086904.303 9 109152604.999 8
  23269844.558    23269846.581    -9167981.212 7  32158425.258 7
  21773888.904    21773891.294   -21435472.652 9  13525281.312 9
 88  3 22  7 21 59.0800000  0  4G 3G13G11G 9
  22758465.706    22758467.782   -85901812.947 9 105125387.898 8
  20970842.058    20970845.102   -85065776.443 9 109169068.246 8
  23282853.721    23282855.637    -9099617.880 8  32211695.353 9
  21792085.070    21792085.624   -21339860.300 9  13599784.432 8
 88  3 22  7 22 29.0800000  0  4G 3G13G11G 9
  22748334.310    22748336.916   -85955057.857 8 105083898.399 8
  20974907.903    20974908.349   -85044418.734 9 109185710.623 8
  23295863.953    23295865.823    -9031256.107 8  32264964.243 7
  21810358.928    21810361.641   -21243820.578 8  13674620.547 7
 88  3 22  7 22 59.0800000  0  4G 3G13G11G 9
  22738243.428    22738245.346   -86008075.922 9 105042585.629 8
  20979015.598    20979015.715   -85022832.951 9 109202530.726 8
  23308873.497    23308873.553    -8962896.439 9  32318231.515 8
  21828716.432    21828719.235   -21147356.374 9  13749787.445 8
 88  3 22  7 23 29.0800000  0  4G 3G13G11G 9
  22728198.345    22728200.143   -86060867.870 9 105001449.064 9
  20983165.816    20983166.272   -85001020.895 9 109219527.147 8
  23321878.827    23321881.558    -8894540.129 8  32371496.126 9
  21847152.910    21847154.232   -21050470.981 9  13825282.544 8
 88  3 22  7 23 59.0800000  0  4G 3G13G11G 9
  22718192.458    22718197.422   -86113433.954 8 104960488.514 8
  20987359.404    20987359.690   -84978984.663 9 109236698.235 7
  23334887.503    23334888.666    -8826188.197 8  32424757.363 9
  21865668.937    21865669.708   -20953167.244 9  13901103.645 7
 88  3 22  7 24 29.0800000  0  4G 3G13G11G 9
  22708233.920    22708237.775   -86165774.740 9 104919703.497 9
  20991593.009    20991595.915   -84956725.101 9 109254043.348 8
  23347892.927    23347894.468    -8757841.414 7  32478014.580 8
  21884263.226    21884265.498   -20855448.466 9  13977248.119 7
 88  3 22  7 24 59.0800000  0  4G 3G13G11G 9
  22698316.189    22698320.893   -86217890.980 8 104879093.472 9
  20995872.179    20995873.922   -84934244.569 8 109271560.627 7
  23360897.009    23360899.434    -8689500.494 9  32531267.208 8
  21902938.899    21902938.786   -20757317.388 8  14053713.867 8
 88  3 22  7 25 29.0800000  0  4G 3G13G11G 9
  22688441.850    22688446.377   -86269782.970 8 104838658.170 8
  21000192.413    21000191.860   -84911544.529 9 109289248.962 8
  23373900.700    23373904.928    -8621166.194 8  32584514.686 8
  21921689.816    21921690.975   -20658777.371 9  14130498.292 8
 88  3 22  7 25 59.0800000  0  4G 3G13G11G 9
  22678610.712    22678614.871   -86321450.863 8 104798397.460 8
  21004551.482    21004555.414   -84888626.234 9 109307107.369 8
  23386903.611    23386905.184    -8552839.529 9  32637756.251 9
  21940518.830    21940521.214   -20559831.355 9  14207599.060 8
 88  3 22  7 26 29.0800000  0  4G 3G13G11G 9
  22668822.613    22668825.304   -86372895.709 9 104758310.595 9
  21008953.799    21008957.626   -84865491.468 8 109325134.457 7
  23399905.365    23399905.124    -8484521.776 9  32690990.890 9
  21959424.106    21959425.621   -20460482.281 9  14285013.896 8
 88  3 22  7 26 59.0800000  0  4G 3G13G11G 9
  22659073.524    22659077.243   -86424118.188 9 104718397.001 8
  21013400.869    21013400.017   -84842142.198 9 109343328.709 8
  23412903.691    23412904.483    -8416213.507 9  32744218.078 8
  21978407.124    21978405.961   -20360733.673 9  14362740.106 7
 88  3 22  7 27 29.0800000  0  4G 3G13G11G 9
  22649370.443    22649372.007   -86475118.717 9 104678656.342 8
  21017882.331    21017884.162   -84818579.929 9 109361688.919 8
  23425895.296    23425902.122    -8347915.764 7  32797437.072 9
  21997463.018    21997463.482   -20260588.417 9  14440775.363 8
 88  3 22  7 27 59.0800000  0  4G 3G13G11G 9
  22639705.494    22639709.247   -86525897.177 8 104639088.726 9
  21022406.559    21022408.737   -84794806.310 9 109380213.826 8
  23438891.271    23438896.426    -8279629.015 6  32850647.470 9
  22016594.958    22016596.265   -20160049.703 9  14519117.184 8
 88  3 22  7 28 29.0800000  0  4G 3G13G11G 9
  22630084.714    22630087.854   -86576454.767 7 104599693.228 8
  21026971.000    21026972.452   -84770823.033 9 109398902.083 8
  23451884.123    23451886.386    -8211354.368 6  32903848.491 9
  22035800.605    22035802.018   -20059120.738 9  14597763.095 8
 88  3 22  7 28 59.0800000  0  4G 3G13G11G 9
  22620505.206    22620508.644   -86626791.961 9 104560469.463 8
  21031572.810    21031576.816   -84746631.581 9 109417752.556 8
  23464875.539    23464878.760    -8143092.563 7  32957039.469 8
  22055080.861    22055083.309   -19957804.534 9  14676710.761 8
 88  3 22  7 29 29.0800000  0  4G 3G13G11G 9
  22610969.136    22610972.877   -86676909.573 9 104521416.788 8
  21036217.348    21036216.289   -84722233.594 9 109436764.009 7
  23477865.171    23477865.867    -8074844.482 8  33010219.741 8
  22074434.657    22074435.565   -19856104.380 9  14755957.646 8
 88  3 22  7 29 59.0800000  0  4G 3G13G11G 9
  22601473.182    22601476.740   -86726808.024 9 104482534.900 7
  21040898.235    21040899.414   -84697630.418 9 109455935.315 8
  23490849.286    23490849.096    -8006610.616 8  33063388.943 8
  22093858.112    22093859.754   -19754023.248 9  14835501.374 8
 88  3 22  7 30 29.0800000  0  4G 3G13G11G 9
  22592020.970    22592021.618   -86776487.847 8 104443823.345 8
  21045617.985    21045619.462   -84672823.972 9 109475265.010 8
  23503828.523    23503831.111    -7938391.912 8  33116546.337 9
  22113356.049    22113356.937   -19651564.677 9  14915339.204 8
 88  3 22  7 30 59.0800000  0  4G 3G13G11G 9
  22582606.003    22582611.677   -86825949.664 8 104405281.679 8
  21050378.424    21050378.413   -84647815.646 9 109494752.019 8
  23516806.230    23516810.716    -7870189.306 8  33169691.184 9
  22132923.964    22132925.927   -19548731.538 9  14995468.925 7
 88  3 22  7 31 29.0800000  0  4G 3G13G11G 9
  22573237.075    22573238.145   -86875193.738 9 104366909.720 9
  21055175.750    21055176.072   -84622607.491 9 109514394.740 8
  23529781.010    23529786.095    -7802003.524 8  33222822.968 9
  22152563.978    22152564.650   -19445527.197 9  15075887.909 7
 88  3 22  7 31 59.0800000  0  4G 3G13G11G 9
  22563906.847    22563911.652   -86924220.938 8 104328706.688 8
  21060009.775    21060011.495   -84597200.772 9 109534192.188 8
  23542754.013    23542758.506    -7733835.268 9  33275941.064 8
  22172273.579    22172274.294   -19341954.950 9  15156593.541 6
 88  3 22  7 32 29.0800000  0  4G 3G13G12G 9
  22554617.489    22554620.576   -86973032.015 9 104290672.115 8
  21064882.980    21064885.061   -84571597.565 9 109554142.705 7
                  20496366.609   -93786852.011 9
  22192052.136    22192053.052   -19238017.744 9  15237583.552 7
 88  3 22  7 32 59.0800000  0  4G 3G13G12G 9
  22545372.905    22545373.484   -87021627.631 9 104252805.405 8
  21069789.923    21069791.755   -84545799.550 9 109574245.074 7
  20798765.340    20798767.307   -93773316.363 8 119098874.374 7
  22211899.400    22211901.885   -19133719.120 9  15318855.220 6
 88  3 22  7 33 29.0800000  0  4G 3G13G12G 9
  22536163.639    22536169.602   -87070008.026 8 104215106.395 7
  21074735.337    21074738.741   -84519807.483 9 109594498.618 8
  20801467.119    20801466.282   -93759134.180 9 119109925.419 6
  22231815.118    22231815.737   -19029062.119 9  15400406.127 6
 88  3 22  7 33 59.0800000  0  4G 3G13G12G 9
  22527002.308    22527000.871   -87118174.044 8 104177574.486 8
  21079720.733    21079720.374   -84493623.738 9 109614901.542 8
  20804285.656    20804289.005   -93744306.418 8 119121479.493 7
  22251797.857    22251798.601   -18924049.999 8  15482233.764 6
 88  3 22  7 34 29.0800000  0  4G 3G13G12G 9
  22517873.548    22517875.547   -87166126.395 8 104140209.028 9
  21084737.337    21084740.609   -84467249.104 9 109635453.209 7
  20807232.445    20807232.015   -93728833.384 9 119133536.393 8
  22271847.353    22271851.013   -18818685.895 8  15564335.604 6
 88  3 22  7 34 59.0800000  0  4G 3G13G12G 9
  22508791.543    22508789.621   -87213865.571 9 104103009.692 8
  21089794.377    21089793.879   -84440686.004 9 109656151.718 8
  20810299.020    20810300.891   -93712714.611 8 119146096.475 8
  22291965.399    22291965.777   -18712973.297 9  15646709.025 7
 88  3 22  7 35 29.0800000  0  4G 3G13G12G 9
  22499745.540    22499747.739   -87261391.870 9 104065976.235 8
  21094884.958    21094887.073   -84413935.074 9 109676996.597 8
  20813489.208    20813490.024   -93695951.417 8 119159158.690 7
  22312145.973    22312149.215   -18606915.429 9  15729351.497 6
 88  3 22  7 35 59.0800000  0  4G 3G13G12G 9
  22490741.565    22490743.894   -87308706.341 9 104029107.819 8
  21100009.132    21100011.615   -84386998.566 9 109697986.084 7
  20816801.606    20816803.639   -93678543.286 9 119172723.441 8
  22332393.121    22332394.395   -18500515.361 8  15812260.591 8
 88  3 22  7 36 29.0800000  0  4G 3G13G12G 9
  22481780.072    22481781.035   -87355809.515 9 103992404.074 8
  21105169.790    21105171.453   -84359877.384 9 109719119.476 6
  20820238.827    20820237.840   -93660491.193 8 119186790.032 8
  22352704.763    22352704.998   -18393776.472 9  15895433.741 7
 88  3 22  7 36 59.0800000  0  4G 3G13G12G 9
  22472855.402    22472858.338   -87402702.089 9 103955864.401 9
  21110367.035    21110368.337   -84332573.872 9 109740394.954 7
  20823792.816    20823795.501   -93641795.308 8 119201358.218 7
  22373079.867    22373083.050   -18286701.993 8  15978868.374 7
 88  3 22  7 37 29.0800000  0  4G 3G13G12G 9
  22463971.853    22463973.329   -87449384.598 8 103919488.441 8
  21115597.281    21115597.516   -84305089.424 9 109761811.406 7
  20827477.370    20827476.467   -93622456.373 9 119216427.541 8
  22393519.883    22393522.845   -18179295.358 9  16062561.835 8
 88  3 22  7 37 59.0800000  0  4G 3G13G12G 9
  22455128.066    22455131.552   -87495857.550 9 103883275.743 8
  21120861.113    21120862.117   -84277425.407 9 109783367.779 7
  20831277.809    20831278.455   -93602474.561 8 119231997.722 7
  22414022.474    22414024.576   -18071559.845 9  16146511.572 8
 88  3 22  7 38 29.0800000  0  4G 3G13G12G 9
  22446324.850    22446328.402   -87542121.798 8 103847225.710 8
  21126160.014    21126159.884   -84249582.971 9 109805063.203 7
  20835203.071    20835204.089   -93581850.791 9 119248068.206 8
  22434586.095    22434585.782   -17963498.534 8  16230715.166 9
 88  3 22  7 38 59.0800000  0  4G 3G13G12G 9
  22437560.883    22437560.651   -87588178.257 9 103811337.575 8
  21131491.240    21131492.346   -84221563.910 9 109826896.258 8
  20839248.992    20839249.560   -93560585.713 9 119264638.380 7
  22455210.248    22455212.080   -17855114.912 7  16315169.943 7
 88  3 22  7 39 29.0800000  0  4G 3G13G12G 9
  22428834.993    22428837.879   -87634027.356 9 103775611.004 8
  21136858.031    21136858.971   -84193369.868 9 109848865.623 9
  20843418.435    20843419.073   -93538679.837 9 119281707.884 7
  22475894.259    22475897.497   -17746412.239 9  16399873.293 6
 88  3 22  7 39 59.0800000  0  4G 3G13G12G 9
  22420151.923    22420154.413   -87679670.179 9 103740045.180 8
  21142253.895    21142256.481   -84165002.250 9 109870970.259 8
  20847708.697    20847711.722   -93516134.091 8 119299275.926 9
  22496640.450    22496641.770   -17637394.176 8  16484822.442 5
 88  3 22  7 40 29.0800000  0  4G 3G13G12G 9
  22411505.076    22411504.734   -87725107.374 9 103704639.602 7
  21147685.105    21147687.046   -84136462.970 8 109893208.640 7
  20852119.605    20852118.642   -93492949.052 8 119317342.221 6
  22517446.244    22517448.613   -17528064.080 7  16570014.754 7
 88  3 22  7 40 59.0800000  0  4G 3G13G12G 9
  22402898.716    22402898.486   -87770339.210 8 103669394.022 7
  21153148.767    21153148.681   -84107753.369 9 109915579.772 7
  20856652.908    20856656.299   -93469124.808 9 119335906.534 8
  22538308.054    22538312.200   -17418424.868 7  16655447.892 7
 88  3 22  7 41 29.0800000  0  4G 3G13G12G 9
  22394329.501    22394329.393   -87815366.035 9 103634308.182 7
  21158645.661    21158645.607   -84078874.545 9 109938082.759 7
  20861307.690    20861309.385   -93444662.491 9 119354968.067 6
  22559231.393    22559232.822   -17308479.805 8  16741119.400 6
 88  3 22  7 41 59.0800000  0  4G 3G13G12G 9
  22385798.065    22385802.522   -87860188.971 8 103599381.256 8
  21164172.186    21164174.099   -84049828.394 9 109960716.139 7
  20866083.513    20866086.386   -93419563.064 9 119374526.065 7
  22580210.130    22580213.648   -17198232.426 7  16827026.435 6
 88  3 22  7 42 29.0800000  0  4G 3G13G12G 9
  22377307.672    22377308.929   -87904808.852 8 103564612.528 7
  21169730.488    21169730.899   -84020616.132 9 109983478.938 6
  20870981.258    20870983.265   -93393826.989 9 119394580.122 8
  22601248.976    22601248.878   -17087685.967 6  16913166.490 7
 88  3 22  7 42 59.0800000  0  4G 3G13G12G 9
  22368857.288    22368857.294   -87949226.013 9 103530001.769 8
  21175320.753    21175319.896   -83991238.901 8 110006370.258 7
  20875999.932    20876000.529   -93367454.955 9 119415129.763 7
  22622337.157    22622342.974   -16976843.628 7  16999537.067 6
 88  3 22  7 43 29.0800000  0  4G 3G13G12G 9
  22360442.010    22360444.304   -87993441.177 8 103495548.401 8
  21180942.899    21180940.947   -83961698.281 9 110029388.938 7
  20881139.747    20881141.151   -93340447.828 9 119436174.239 7
  22643486.575    22643489.993   -16865708.848 7  17086135.556 6
 88  3 22  7 43 59.0800000  0  4G 3G13G12G 9
  22352065.518    22352066.469   -88037455.155 8 103461251.790 7
  21186595.871    21186594.500   -83931996.521 9 110052533.218 8
  20886401.071    20886400.851   -93312806.712 8 119457712.773 7
  22664692.396    22664692.694   -16754284.907 7  17172959.424 4
 88  3 22  7 44 29.0800000  0  4G 3G13G12G 9
  22343729.783    22343730.182   -88081268.673 9 103427111.412 8
  21192279.065    21192278.996   -83902134.501 9 110075802.334 8
  20891780.908    20891782.897   -93284532.203 9 119479744.837 8
  22685947.440    22685950.440   -16642575.226 5  17260005.890 6
 88  3 22  7 44 59.0800000  0  4G 3G13G12G 9
  22335430.664    22335430.327   -88124882.215 8 103393126.848 7
  21197990.265    21197992.122   -83872113.428 9 110099195.318 8
  20897280.908    20897282.065   -93255625.337 9 119502269.644 7
  22707260.941    22707261.347   -16530583.233 7  17347272.370 5
 88  3 22  7 45 29.0800000  0  4G 3G13G12G 9
  22327169.016    22327169.471   -88168296.519 9 103359297.566 8
  21203733.191    21203733.256   -83841934.604 9 110122711.277 7
  20902903.220    20902903.045   -93226087.360 9 119525286.250 7
  22728624.964    22728625.331   -16418312.084 7  17434756.428 4
 88  3 22  7 45 59.0800000  0  4G 3G13G12G 9
  22318945.799    22318945.481   -88211512.245 9 103325622.992 7
  21209506.070    21209506.384   -83811599.951 8 110146348.711 8
  20908641.744    20908645.765   -93195919.224 9 119548793.868 7
  22750038.831    22750043.264   -16305765.280 4  17522455.214 6
 88  3 22  7 46 29.0800000  0  4G 3G13G12G 9
  22310758.563    22310759.033   -88254530.505 9 103292102.253 7
  21215309.265    21215307.148   -83781111.299 9 110170106.097 7
  20914503.190    20914505.529   -93165121.523 9 119572792.055 7
  22771509.201    22771511.883   -16192945.915 5  17610366.345 7
 88  3 22  7 46 59.0800000  0  4G 3G13G12G 9
  22302611.459    22302610.440   -88297351.521 8 103258735.267 8
  21221137.703    21221138.751   -83750469.300 8 110193982.943 8
  20920483.543    20920484.230   -93133695.201 8 119597280.097 7
  22793030.373    22793033.232   -16079857.819 5  17698486.931 5
 88  3 22  7 47 29.0800000  0  4G 3G13G12G 9
  22294499.331    22294498.314   -88339976.131 8 103225521.314 7
  21226998.016    21226999.124   -83719675.475 9 110217978.119 7
  20926583.607    20926585.365   -93101641.797 9 119622256.754 8
  22814600.500    22814604.074   -15966503.948 6  17786814.576 5
 88  3 22  7 47 59.0800000  0  4G 3G13G12G 9
  22286426.342    22286426.493   -88382404.977 9 103192459.901 7
  21232886.644    21232887.937   -83688731.173 9 110242090.603 8
  20932802.446    20932805.348   -93068962.112 9 119647721.416 7
  22836221.654    22836226.532   -15852887.780 5  17875346.627 6
 88  3 22  7 48 29.0800000  0  4G 3G13G12G 9
  22278389.652    22278391.014   -88424638.908 8 103159550.329 9
  21238804.262    21238805.844   -83657637.824 9 110266319.186 8
  20939139.133    20939140.649   -93035657.748 8 119673672.899 7
  22857891.498    22857898.415   -15739012.894 3  17964080.296 1
 88  3 22  7 48 59.0800000  0  4G 3G13G12G 9
  22270388.728    22270390.235   -88466678.955 9 103126791.856 8
  21244748.088    21244748.877   -83626396.860 9 110290662.808 7
                  20945595.832                   119700110.618 1
  22879609.947    22879610.015   -15624882.444 3  18053013.158 1
 88  3 22  7 49 29.0800000  0  4G 3G13G12G 9
  22262425.696    22262428.486   -88508525.783 8 103094183.948 8
  21250720.920    21250723.407   -83595009.561 9 110315120.398 7
  20952171.129    20952173.277   -93010598.381 8 119727033.391 7
  22901374.536    22901375.434   -15510500.011 4  18142142.371 3
 88  3 22  7 49 59.0800000  0  4G 3G13G12G 9
  22254499.162    22254501.442   -88550179.732 8 103061726.335 8
  21256720.285    21256722.815   -83563477.392 8 110339690.925 7
  20958864.435    20958866.327   -92975426.476 9 119754440.059 8
  22923189.252    22923190.776   -15395868.599 3  18231465.521 2
 88  3 22  7 50 29.0800000  0  4G 3G13G12G 9
  22246608.639    22246608.731   -88591641.671 9 103029418.335 7
  21262750.089    21262750.757   -83531801.701 9 110364373.313 7
  20965675.361    20965676.780   -92939634.257 9 119782330.074 7
  22945049.426    22945050.350   -15280992.014 5  18320979.722 6
 88  3 22  7 50 59.0800000  0  4G 3G13G12G 9
  22238755.270    22238756.594   -88632912.524 8 102997259.265 8
  21268804.022    21268802.551   -83499983.941 9 110389166.360 7
  20972603.398    20972606.793   -92903223.106 8 119810702.411 8
  22966956.978    22966957.841   -15165873.355 5  18410682.537 5
 88  3 22  7 51 29.0800000  0  4G 3G13G12G 9
  22230939.623    22230936.671   -88673992.652 8 102965248.765 8
  21274885.751    21274883.920   -83468025.484 8 110414069.052 7
  20979648.359    20979652.639   -92866194.277 8 119839556.014 8
  22988910.372    22988909.576   -15050516.199 5  18500571.191 5
 88  3 22  7 51 59.0800000  0  4G 3G13G12G 9
  22223156.599    22223160.061   -88714882.927 8 102933386.235 7
  21280994.227    21280994.677   -83435927.422 8 110439080.537 7
  20986814.544    20986815.242   -92828549.492 9 119868889.593 7
  23010908.621    23010909.017   -14934923.741 6  18590643.181 5
 88  3 22  7 52 29.0800000  0  4G 3G13G12G 9
  22215412.597    22215413.762   -88755584.020 9 102901671.113 7
  21287129.439    21287129.465   -83403690.760 9 110464200.011 8
  20994095.320    20994096.246   -92790289.747 8 119898702.350 7
  23032950.540    23032949.823   -14819099.255 7  18680895.938 5
 88  3 22  7 52 59.0800000  0  4G 3G13G12G 9
  22207701.611    22207703.551   -88796096.627 9 102870102.853 8
  21293289.636    21293291.701   -83371317.337 9 110489426.038 8
  21001491.457    21001495.022   -92751417.001 9 119928992.785 8
  23055031.339    23055032.498   -14703046.426 7  18771326.723 4
 88  3 22  7 53 29.0800000  0  4G 3G13G12G 9
  22200029.172    22200031.067   -88836421.443 8 102838680.919 7
  21299477.138    21299476.547   -83338808.467 9 110514757.625 8
  21009006.072    21009009.192   -92711931.778 8 119959760.434 7
  23077157.821    23077157.616   -14586768.454 7  18861932.991 5
 88  3 22  7 53 59.0800000  0  4G 3G13G12G 9
  22192390.639    22192393.910   -88876559.766 8 102807404.326 7
  21305686.843    21305689.005   -83306165.328 8 110540193.801 7
  21016635.655    21016638.184   -92671836.366 8 119991003.611 8
  23099326.556    23099327.184   -14470269.055 7  18952711.702 5
 88  3 22  7 54 29.0800000  0  4G 3G13G12G 9
  22184789.269    22184790.817   -88916512.126 8 102776272.615 7
  21311924.109    21311924.199   -83273389.620 8 110565733.328 6
  21024380.518    21024384.313   -92631132.219 8 120022721.130 7
  23121538.427    23121539.885   -14353551.437 8  19043660.491 6
 88  3 22  7 54 59.0800000  0  4G 3G13G12G 9
  22177220.998    22177224.204   -88956278.819 9 102745285.570 8
  21318185.799    21318188.578   -83240482.503 8 110591375.199 7
  21032243.875    21032244.243   -92589820.319 8 120054912.194 7
  23143789.165    23143791.131   -14236619.086 7  19134776.608 5
 88  3 22  7 55 29.0800000  0  4G 3G13G12G 9
  22169691.168    22169693.190   -88995861.185 9 102714442.187 7
  21324472.950    21324472.256   -83207444.866 8 110617118.812 7
  21040219.992    21040221.816   -92547902.682 8 120087575.274 7
  23166082.042    23166082.096   -14119475.310 6  19226057.435 6
 88  3 22  7 55 59.0800000  0  4G 3G13G12G 9
  22162193.135    22162193.403   -89035260.100 9 102683741.711 7
  21330785.660    21330786.221   -83174278.197 8 110642962.985 7
  21048313.407    21048312.851   -92505381.062 8 120120708.983 7
  23188413.390    23188412.114   -14002123.512 7  19317500.336 6
 88  3 22  7 56 29.0800000  0  4G 3G13G12G 9
  22154729.953    22154732.175   -89074476.029 8 102653183.841 7
  21337121.829    21337122.444   -83140983.736 8 110668906.698 6
  21056519.264    21056519.684   -92462256.502 8 120154312.493 7
  23210784.507    23210785.772   -13884566.898 5  19409102.849 5
 88  3 22  7 56 59.0800000  0  4G 3G13G12G 9
  22147305.369    22147303.209   -89113509.634 8 102622768.044 7
  21343480.151    21343482.171   -83107562.454 7 110694949.212 7
  21064839.327    21064839.723   -92418530.619 8 120188384.571 7
  23233188.969    23233193.635   -13766809.231 2  19500862.070 3
 88  3 22  7 57 29.0800000  0  4G 3G13G12G 9
  22139909.763    22139910.642   -89152361.641 8 102592493.652 7
  21349865.601    21349867.503   -83074015.840 9 110721089.297 7
  21073277.531    21073278.358   -92374205.279 9 120222923.711 7
  23255638.790    23255641.972   -13648853.597 2  19592775.383 5
 88  3 22  7 57 59.0800000  0  4G 3G13G12G 9
  22132552.568    22132553.335   -89191032.903 8 102562360.290 7
  21356274.059    21356273.748   -83040345.099 8 110747326.296 6
  21081824.174    21081824.717   -92329282.301 9 120257928.701 7
  23278124.855    23278120.694   -13530703.649 4  19684840.249 3
 88  3 22  7 58 29.0800000  0  4G 3G13G12G 9
  22125228.214    22125226.018   -89229523.591 6 102532367.474 4
  21362705.720    21362707.644   -83006551.714 6 110773658.768 6
  21090486.311    21090492.215   -92283763.061 6 120293398.054 3
  23300640.459    23300643.831   -13412362.510 1  19777054.030 1
 88  3 22  7 58 59.0800000  0  3G 3G13G12
                  22117936.847   -89267834.976 8
                  21369157.923   -82972619.626 6
  21099262.484    21099263.386   -92237650.102 8 120368136.518 5
